Time,TemperatureF,DewpointF,PressureIn,WindDirection,WindDirectionDegrees,WindSpeedMPH,WindSpeedGustMPH,Humidity,HourlyPrecipIn,Conditions,Clouds,dailyrainin,SolarRadiationWatts/m^2,SoftwareType,DateUTC
2013-07-20 00:00:00,72.8,63.2,29.81,North,5,0.0,0.0,72,0.00,,,0.00,0,Wunderground v.1.15,2013-07-20 05:00:00,
2013-07-20 00:04:00,72.7,63.5,29.81,North,5,0.0,0.0,73,0.00,,,0.00,0,Wunderground v.1.15,2013-07-20 05:04:00,
2013-07-20 00:05:00,72.6,63.1,29.81,North,5,0.0,0.0,72,0.00,,,0.00,0,Wunderground v.1.15,2013-07-20 05:05:00,
2013-07-20 00:07:00,72.5,63.4,29.81,North,5,0.0,0.0,73,0.00,,,0.00,0,Wunderground v.1.15,2013-07-20 05:07:00,
2013-07-20 00:09:00,72.5,63.0,29.81,North,5,0.0,0.0,72,0.00,,,0.00,0,Wunderground v.1.15,2013-07-20 05:09:00,
2013-07-20 00:12:00,72.5,63.4,29.81,North,5,0.0,0.0,73,0.00,,,0.00,0,Wunderground v.1.15,2013-07-20 05:12:00,
2013-07-20 00:15:00,72.3,63.2,29.81,North,5,0.0,0.0,73,0.00,,,0.00,0,Wunderground v.1.15,2013-07-20 05:15:00,
2013-07-20 00:17:00,72.2,63.1,29.81,North,5,0.0,0.0,73,0.00,,,0.00,0,Wunderground v.1.15,2013-07-20 05:17:00,
2013-07-20 00:18:00,72.1,63.0,29.81,North,5,0.0,0.0,73,0.00,,,0.00,0,Wunderground v.1.15,2013-07-20 05:18:00,
2013-07-20 00:21:00,72.0,63.3,29.81,North,5,0.0,0.0,74,0.00,,,0.00,0,Wunderground v.1.15,2013-07-20 05:21:00,
2013-07-20 00:22:00,71.9,63.2,29.81,North,5,0.0,0.0,74,0.00,,,0.00,0,Wunderground v.1.15,2013-07-20 05:22:00,
2013-07-20 00:23:00,71.8,63.4,29.81,North,5,0.0,0.0,75,0.00,,,0.00,0,Wunderground v.1.15,2013-07-20 05:23:00,
2013-07-20 00:25:00,71.5,63.2,29.81,North,5,0.0,0.0,75,0.00,,,0.00,0,Wunderground v.1.15,2013-07-20 05:25:00,
2013-07-20 00:28:00,71.2,63.2,29.82,North,5,0.0,0.0,76,0.00,,,0.00,0,Wunderground v.1.15,2013-07-20 05:28:00,
2013-07-20 00:31:00,70.8,63.2,29.82,North,5,0.0,0.0,77,0.00,,,0.00,0,Wunderground v.1.15,2013-07-20 05:31:00,
2013-07-20 00:32:00,70.7,63.1,29.82,North,5,0.0,0.0,77,0.00,,,0.00,0,Wunderground v.1.15,2013-07-20 05:32:00,
2013-07-20 00:34:00,70.7,63.1,29.82,North,5,0.0,0.0,77,0.00,,,0.00,0,Wunderground v.1.15,2013-07-20 05:34:00,
2013-07-20 00:37:00,70.5,62.9,29.82,North,5,0.0,0.0,77,0.00,,,0.00,0,Wunderground v.1.15,2013-07-20 05:37:00,
2013-07-20 00:38:00,70.5,62.9,29.82,North,5,0.0,0.0,77,0.00,,,0.00,0,Wunderground v.1.15,2013-07-20 05:38:00,
2013-07-20 00:40:00,70.4,63.2,29.82,North,5,0.0,0.0,78,0.00,,,0.00,0,Wunderground v.1.15,2013-07-20 05:40:00,
2013-07-20 00:41:00,70.3,63.1,29.82,North,5,0.0,0.0,78,0.00,,,0.00,0,Wunderground v.1.15,2013-07-20 05:41:00,
2013-07-20 00:42:00,70.3,63.1,29.82,North,5,0.0,0.0,78,0.00,,,0.00,0,Wunderground v.1.15,2013-07-20 05:42:00,
2013-07-20 00:45:00,70.2,63.0,29.82,North,5,0.0,0.0,78,0.00,,,0.00,0,Wunderground v.1.15,2013-07-20 05:45:00,
2013-07-20 00:46:00,70.0,62.8,29.82,North,5,0.0,0.0,78,0.00,,,0.00,0,Wunderground v.1.15,2013-07-20 05:46:00,
2013-07-20 00:48:00,69.9,63.1,29.82,North,5,0.0,0.0,79,0.00,,,0.00,0,Wunderground v.1.15,2013-07-20 05:48:00,
2013-07-20 00:49:00,69.8,63.0,29.83,North,5,0.0,0.0,79,0.00,,,0.00,0,Wunderground v.1.15,2013-07-20 05:49:00,
2013-07-20 00:52:00,69.7,62.9,29.83,North,5,0.0,0.0,79,0.00,,,0.00,0,Wunderground v.1.15,2013-07-20 05:52:00,
2013-07-20 00:54:00,69.4,63.0,29.83,North,5,0.0,0.0,80,0.00,,,0.00,0,Wunderground v.1.15,2013-07-20 05:54:00,
2013-07-20 00:55:00,69.3,62.9,29.83,North,5,0.0,0.0,80,0.00,,,0.00,0,Wunderground v.1.15,2013-07-20 05:55:00,
2013-07-20 00:58:00,69.0,62.9,29.83,North,5,0.0,0.0,81,0.00,,,0.00,0,Wunderground v.1.15,2013-07-20 05:58:00,
2013-07-20 00:59:00,68.9,62.8,29.83,North,5,0.0,0.0,81,0.00,,,0.00,0,Wunderground v.1.15,2013-07-20 05:59:00,
2013-07-20 01:02:00,68.8,62.7,29.83,North,5,0.0,0.0,81,0.00,,,0.00,0,Wunderground v.1.15,2013-07-20 06:02:00,
2013-07-20 01:04:00,68.7,62.6,29.83,North,5,0.0,0.0,81,0.00,,,0.00,0,Wunderground v.1.15,2013-07-20 06:04:00,
2013-07-20 01:05:00,68.6,62.9,29.83,North,5,0.0,0.0,82,0.00,,,0.00,0,Wunderground v.1.15,2013-07-20 06:05:00,
2013-07-20 01:08:00,68.7,62.6,29.83,North,5,0.0,0.0,81,0.00,,,0.00,0,Wunderground v.1.15,2013-07-20 06:08:00,
2013-07-20 01:09:00,68.7,62.6,29.83,North,5,0.0,0.0,81,0.00,,,0.00,0,Wunderground v.1.15,2013-07-20 06:09:00,
2013-07-20 01:11:00,68.8,62.7,29.83,North,5,0.0,0.0,81,0.00,,,0.00,0,Wunderground v.1.15,2013-07-20 06:11:00,
2013-07-20 01:13:00,69.0,62.9,29.83,North,5,0.0,0.0,81,0.00,,,0.00,0,Wunderground v.1.15,2013-07-20 06:13:00,
2013-07-20 01:14:00,69.1,63.0,29.83,North,5,0.0,0.0,81,0.00,,,0.00,0,Wunderground v.1.15,2013-07-20 06:14:00,
2013-07-20 01:16:00,69.2,62.8,29.83,North,5,0.0,0.0,80,0.00,,,0.00,0,Wunderground v.1.15,2013-07-20 06:16:00,
2013-07-20 01:19:00,69.2,62.8,29.83,North,5,0.0,0.0,80,0.00,,,0.00,0,Wunderground v.1.15,2013-07-20 06:19:00,
2013-07-20 01:20:00,69.1,63.0,29.83,North,5,0.0,0.0,81,0.00,,,0.00,0,Wunderground v.1.15,2013-07-20 06:20:00,
2013-07-20 01:21:00,69.1,63.0,29.83,North,5,0.0,0.0,81,0.00,,,0.00,0,Wunderground v.1.15,2013-07-20 06:21:00,
2013-07-20 01:23:00,69.0,62.9,29.83,North,5,0.0,0.0,81,0.00,,,0.00,0,Wunderground v.1.15,2013-07-20 06:23:00,
2013-07-20 01:24:00,69.0,62.9,29.83,North,5,0.0,0.0,81,0.00,,,0.00,0,Wunderground v.1.15,2013-07-20 06:24:00,
2013-07-20 01:25:00,68.9,62.8,29.83,North,5,0.0,0.0,81,0.00,,,0.00,0,Wunderground v.1.15,2013-07-20 06:25:00,
2013-07-20 01:27:00,68.7,62.6,29.83,North,5,0.0,0.0,81,0.00,,,0.00,0,Wunderground v.1.15,2013-07-20 06:27:00,
2013-07-20 01:29:00,68.5,62.8,29.83,North,5,0.0,0.0,82,0.00,,,0.00,0,Wunderground v.1.15,2013-07-20 06:29:00,
2013-07-20 01:31:00,68.3,62.9,29.83,North,5,0.0,0.0,83,0.00,,,0.00,0,Wunderground v.1.15,2013-07-20 06:31:00,
2013-07-20 01:32:00,68.1,62.7,29.83,North,5,0.0,0.0,83,0.00,,,0.00,0,Wunderground v.1.15,2013-07-20 06:32:00,
2013-07-20 01:33:00,68.0,62.6,29.83,North,5,0.0,0.0,83,0.00,,,0.00,0,Wunderground v.1.15,2013-07-20 06:33:00,
2013-07-20 01:36:00,67.6,62.9,29.83,North,5,0.0,0.0,85,0.00,,,0.00,0,Wunderground v.1.15,2013-07-20 06:36:00,
2013-07-20 01:38:00,67.3,62.6,29.83,North,5,0.0,0.0,85,0.00,,,0.00,0,Wunderground v.1.15,2013-07-20 06:38:00,
2013-07-20 01:41:00,66.9,62.6,29.83,North,5,0.0,0.0,86,0.00,,,0.00,0,Wunderground v.1.15,2013-07-20 06:41:00,
2013-07-20 01:42:00,66.8,62.8,29.83,North,5,0.0,0.0,87,0.00,,,0.00,0,Wunderground v.1.15,2013-07-20 06:42:00,
2013-07-20 01:44:00,66.7,62.7,29.83,North,5,0.0,0.0,87,0.00,,,0.00,0,Wunderground v.1.15,2013-07-20 06:44:00,
2013-07-20 01:46:00,66.6,62.6,29.83,North,5,0.0,0.0,87,0.00,,,0.00,0,Wunderground v.1.15,2013-07-20 06:46:00,
2013-07-20 01:47:00,66.6,62.6,29.83,North,5,0.0,0.0,87,0.00,,,0.00,0,Wunderground v.1.15,2013-07-20 06:47:00,
2013-07-20 01:49:00,66.5,62.5,29.83,North,5,0.0,0.0,87,0.00,,,0.00,0,Wunderground v.1.15,2013-07-20 06:49:00,
2013-07-20 01:50:00,66.4,62.4,29.83,North,5,0.0,0.0,87,0.00,,,0.00,0,Wunderground v.1.15,2013-07-20 06:50:00,
2013-07-20 01:51:00,66.4,62.4,29.83,North,5,0.0,0.0,87,0.00,,,0.00,0,Wunderground v.1.15,2013-07-20 06:51:00,
2013-07-20 01:53:00,66.3,62.3,29.83,North,5,0.0,0.0,87,0.00,,,0.00,0,Wunderground v.1.15,2013-07-20 06:53:00,
2013-07-20 01:56:00,66.2,62.2,29.83,North,5,0.0,0.0,87,0.00,,,0.00,0,Wunderground v.1.15,2013-07-20 06:56:00,
2013-07-20 01:58:00,66.2,62.2,29.83,North,5,0.0,0.0,87,0.00,,,0.00,0,Wunderground v.1.15,2013-07-20 06:58:00,
2013-07-20 02:00:00,66.1,62.1,29.83,North,5,0.0,0.0,87,0.00,,,0.00,0,Wunderground v.1.15,2013-07-20 07:00:00,
2013-07-20 02:02:00,66.0,62.0,29.83,North,5,0.0,0.0,87,0.00,,,0.00,0,Wunderground v.1.15,2013-07-20 07:02:00,
2013-07-20 02:03:00,65.9,61.9,29.83,North,5,0.0,0.0,87,0.00,,,0.00,0,Wunderground v.1.15,2013-07-20 07:03:00,
2013-07-20 02:04:00,65.9,61.9,29.83,North,5,0.0,0.0,87,0.00,,,0.00,0,Wunderground v.1.15,2013-07-20 07:04:00,
2013-07-20 02:06:00,65.9,61.9,29.83,North,5,0.0,0.0,87,0.00,,,0.00,0,Wunderground v.1.15,2013-07-20 07:06:00,
2013-07-20 02:08:00,66.0,62.0,29.83,North,5,0.0,0.0,87,0.00,,,0.00,0,Wunderground v.1.15,2013-07-20 07:08:00,
2013-07-20 02:09:00,66.1,61.8,29.83,North,5,0.0,0.0,86,0.00,,,0.00,0,Wunderground v.1.15,2013-07-20 07:09:00,
2013-07-20 02:10:00,66.2,61.9,29.83,North,5,0.0,0.0,86,0.00,,,0.00,0,Wunderground v.1.15,2013-07-20 07:10:00,
2013-07-20 02:11:00,66.2,61.9,29.83,North,5,0.0,0.0,86,0.00,,,0.00,0,Wunderground v.1.15,2013-07-20 07:11:00,
2013-07-20 02:13:00,66.3,62.0,29.83,North,5,0.0,0.0,86,0.00,,,0.00,0,Wunderground v.1.15,2013-07-20 07:13:00,
2013-07-20 02:15:00,66.2,61.9,29.83,North,5,0.0,0.0,86,0.00,,,0.00,0,Wunderground v.1.15,2013-07-20 07:15:00,
2013-07-20 02:16:00,66.1,61.8,29.83,North,5,0.0,0.0,86,0.00,,,0.00,0,Wunderground v.1.15,2013-07-20 07:16:00,
2013-07-20 02:18:00,66.0,61.7,29.83,North,5,0.0,0.0,86,0.00,,,0.00,0,Wunderground v.1.15,2013-07-20 07:18:00,
2013-07-20 02:21:00,65.7,62.0,29.83,North,5,0.0,0.0,88,0.00,,,0.00,0,Wunderground v.1.15,2013-07-20 07:21:00,
2013-07-20 02:23:00,65.6,61.9,29.83,North,5,0.0,0.0,88,0.00,,,0.00,0,Wunderground v.1.15,2013-07-20 07:23:00,
2013-07-20 02:24:00,65.4,62.1,29.83,North,5,0.0,0.0,89,0.00,,,0.00,0,Wunderground v.1.15,2013-07-20 07:24:00,
2013-07-20 02:26:00,65.2,61.9,29.83,North,5,0.0,0.0,89,0.00,,,0.00,0,Wunderground v.1.15,2013-07-20 07:26:00,
2013-07-20 02:28:00,65.1,61.8,29.83,North,5,0.0,0.0,89,0.00,,,0.00,0,Wunderground v.1.15,2013-07-20 07:28:00,
2013-07-20 02:29:00,65.0,61.7,29.83,North,5,0.0,0.0,89,0.00,,,0.00,0,Wunderground v.1.15,2013-07-20 07:29:00,
2013-07-20 02:30:00,64.9,61.6,29.83,North,5,0.0,0.0,89,0.00,,,0.00,0,Wunderground v.1.15,2013-07-20 07:30:00,
2013-07-20 02:32:00,64.8,61.5,29.83,North,5,0.0,0.0,89,0.00,,,0.00,0,Wunderground v.1.15,2013-07-20 07:32:00,
2013-07-20 02:33:00,64.7,61.4,29.83,North,5,0.0,0.0,89,0.00,,,0.00,0,Wunderground v.1.15,2013-07-20 07:33:00,
2013-07-20 02:34:00,64.7,61.4,29.83,North,5,0.0,0.0,89,0.00,,,0.00,0,Wunderground v.1.15,2013-07-20 07:34:00,
2013-07-20 02:36:00,64.6,61.3,29.83,North,5,0.0,0.0,89,0.00,,,0.00,0,Wunderground v.1.15,2013-07-20 07:36:00,
2013-07-20 02:37:00,64.5,61.5,29.83,North,5,0.0,0.0,90,0.00,,,0.00,0,Wunderground v.1.15,2013-07-20 07:37:00,
2013-07-20 02:39:00,64.4,61.1,29.83,North,5,0.0,0.0,89,0.00,,,0.00,0,Wunderground v.1.15,2013-07-20 07:39:00,
2013-07-20 02:41:00,64.1,61.1,29.83,North,5,0.0,0.0,90,0.00,,,0.00,0,Wunderground v.1.15,2013-07-20 07:41:00,
2013-07-20 02:45:00,64.0,61.0,29.83,North,5,0.0,0.0,90,0.00,,,0.00,0,Wunderground v.1.15,2013-07-20 07:45:00,
2013-07-20 02:46:00,64.0,61.3,29.83,North,5,0.0,0.0,91,0.00,,,0.00,0,Wunderground v.1.15,2013-07-20 07:46:00,
2013-07-20 02:47:00,64.0,61.3,29.83,North,5,0.0,0.0,91,0.00,,,0.00,0,Wunderground v.1.15,2013-07-20 07:47:00,
2013-07-20 02:51:00,64.4,62.0,29.83,North,5,0.0,0.0,92,0.00,,,0.00,0,Wunderground v.1.15,2013-07-20 07:51:00,
2013-07-20 02:52:00,64.6,62.2,29.83,North,5,0.0,0.0,92,0.00,,,0.00,0,Wunderground v.1.15,2013-07-20 07:52:00,
2013-07-20 02:53:00,64.6,62.2,29.83,North,5,0.0,0.0,92,0.00,,,0.00,0,Wunderground v.1.15,2013-07-20 07:53:00,
2013-07-20 02:54:00,64.8,62.1,29.83,North,5,0.0,0.0,91,0.00,,,0.00,0,Wunderground v.1.15,2013-07-20 07:54:00,
2013-07-20 02:56:00,65.0,62.3,29.83,North,10,0.0,0.0,91,0.00,,,0.00,0,Wunderground v.1.15,2013-07-20 07:56:00,
2013-07-20 02:58:00,65.1,62.4,29.83,North,10,0.0,2.0,91,0.00,,,0.00,0,Wunderground v.1.15,2013-07-20 07:58:00,
2013-07-20 02:59:00,65.1,62.1,29.83,North,10,0.0,2.0,90,0.00,,,0.00,0,Wunderground v.1.15,2013-07-20 07:59:00,
2013-07-20 03:00:00,65.2,62.2,29.83,North,10,0.0,0.0,90,0.00,,,0.00,0,Wunderground v.1.15,2013-07-20 08:00:00,
2013-07-20 03:01:00,65.2,62.2,29.83,North,10,0.0,0.0,90,0.00,,,0.00,0,Wunderground v.1.15,2013-07-20 08:01:00,
2013-07-20 03:03:00,65.2,62.2,29.83,North,10,0.0,0.0,90,0.00,,,0.00,0,Wunderground v.1.15,2013-07-20 08:03:00,
2013-07-20 03:05:00,65.3,62.3,29.83,North,10,0.0,0.0,90,0.00,,,0.00,0,Wunderground v.1.15,2013-07-20 08:05:00,
2013-07-20 03:06:00,65.2,62.2,29.83,North,10,0.0,0.0,90,0.00,,,0.00,0,Wunderground v.1.15,2013-07-20 08:06:00,
2013-07-20 03:09:00,65.2,62.2,29.83,North,10,0.0,0.0,90,0.00,,,0.00,0,Wunderground v.1.15,2013-07-20 08:09:00,
2013-07-20 03:11:00,65.1,62.1,29.83,North,10,0.0,0.0,90,0.00,,,0.00,0,Wunderground v.1.15,2013-07-20 08:11:00,
2013-07-20 03:12:00,65.1,62.1,29.83,North,10,0.0,0.0,90,0.00,,,0.00,0,Wunderground v.1.15,2013-07-20 08:12:00,
2013-07-20 03:14:00,65.0,62.0,29.82,North,10,0.0,0.0,90,0.00,,,0.00,0,Wunderground v.1.15,2013-07-20 08:14:00,
2013-07-20 03:17:00,64.8,61.8,29.82,North,10,0.0,0.0,90,0.00,,,0.00,0,Wunderground v.1.15,2013-07-20 08:17:00,
2013-07-20 03:18:00,64.7,61.7,29.82,North,10,0.0,0.0,90,0.00,,,0.00,0,Wunderground v.1.15,2013-07-20 08:18:00,
2013-07-20 03:20:00,64.6,61.6,29.82,North,10,0.0,0.0,90,0.00,,,0.00,0,Wunderground v.1.15,2013-07-20 08:20:00,
2013-07-20 03:22:00,64.4,61.4,29.82,North,10,0.0,0.0,90,0.00,,,0.00,0,Wunderground v.1.15,2013-07-20 08:22:00,
2013-07-20 03:23:00,64.3,61.6,29.82,North,10,0.0,0.0,91,0.00,,,0.00,0,Wunderground v.1.15,2013-07-20 08:23:00,
2013-07-20 03:24:00,64.3,61.6,29.82,North,10,0.0,0.0,91,0.00,,,0.00,0,Wunderground v.1.15,2013-07-20 08:24:00,
2013-07-20 03:26:00,64.0,61.3,29.82,North,10,0.0,0.0,91,0.00,,,0.00,0,Wunderground v.1.15,2013-07-20 08:26:00,
2013-07-20 03:28:00,63.9,61.2,29.82,North,10,0.0,0.0,91,0.00,,,0.00,0,Wunderground v.1.15,2013-07-20 08:28:00,
2013-07-20 03:29:00,63.9,61.2,29.82,North,10,0.0,0.0,91,0.00,,,0.00,0,Wunderground v.1.15,2013-07-20 08:29:00,
2013-07-20 03:30:00,63.8,61.1,29.82,North,10,0.0,0.0,91,0.00,,,0.00,0,Wunderground v.1.15,2013-07-20 08:30:00,
2013-07-20 03:33:00,63.7,61.3,29.82,North,10,0.0,0.0,92,0.00,,,0.00,0,Wunderground v.1.15,2013-07-20 08:33:00,
2013-07-20 03:34:00,63.7,61.3,29.82,North,10,0.0,0.0,92,0.00,,,0.00,0,Wunderground v.1.15,2013-07-20 08:34:00,
2013-07-20 03:35:00,63.6,61.2,29.82,North,10,0.0,0.0,92,0.00,,,0.00,0,Wunderground v.1.15,2013-07-20 08:35:00,
2013-07-20 03:36:00,63.6,61.2,29.82,North,10,0.0,0.0,92,0.00,,,0.00,0,Wunderground v.1.15,2013-07-20 08:36:00,
2013-07-20 03:39:00,63.5,61.1,29.82,North,10,0.0,0.0,92,0.00,,,0.00,0,Wunderground v.1.15,2013-07-20 08:39:00,
2013-07-20 03:40:00,63.5,61.1,29.82,North,10,0.0,0.0,92,0.00,,,0.00,0,Wunderground v.1.15,2013-07-20 08:40:00,
2013-07-20 03:42:00,63.5,61.1,29.81,North,10,0.0,0.0,92,0.00,,,0.00,0,Wunderground v.1.15,2013-07-20 08:42:00,
2013-07-20 03:44:00,63.5,61.1,29.81,North,10,0.0,0.0,92,0.00,,,0.00,0,Wunderground v.1.15,2013-07-20 08:44:00,
2013-07-20 03:45:00,63.6,61.2,29.81,North,10,0.0,0.0,92,0.00,,,0.00,0,Wunderground v.1.15,2013-07-20 08:45:00,
2013-07-20 03:48:00,63.8,61.4,29.81,North,11,0.0,0.0,92,0.00,,,0.00,0,Wunderground v.1.15,2013-07-20 08:48:00,
2013-07-20 03:49:00,63.9,61.5,29.81,North,11,0.0,0.0,92,0.00,,,0.00,0,Wunderground v.1.15,2013-07-20 08:49:00,
2013-07-20 03:50:00,64.1,61.7,29.81,North,9,0.0,1.0,92,0.00,,,0.00,0,Wunderground v.1.15,2013-07-20 08:50:00,
2013-07-20 03:51:00,64.2,61.8,29.81,North,9,0.0,1.0,92,0.00,,,0.00,0,Wunderground v.1.15,2013-07-20 08:51:00,
2013-07-20 03:55:00,64.6,61.6,29.82,North,9,0.0,1.0,90,0.00,,,0.00,0,Wunderground v.1.15,2013-07-20 08:55:00,
2013-07-20 03:56:00,64.7,61.7,29.82,North,9,0.0,1.0,90,0.00,,,0.00,0,Wunderground v.1.15,2013-07-20 08:56:00,
2013-07-20 04:01:00,64.4,61.1,29.82,North,9,0.0,0.0,89,0.00,,,0.00,0,Wunderground v.1.15,2013-07-20 09:01:00,
2013-07-20 04:02:00,64.3,61.0,29.82,North,9,0.0,0.0,89,0.00,,,0.00,0,Wunderground v.1.15,2013-07-20 09:02:00,
2013-07-20 04:04:00,64.1,60.8,29.82,North,9,0.0,0.0,89,0.00,,,0.00,0,Wunderground v.1.15,2013-07-20 09:04:00,
2013-07-20 04:06:00,63.9,60.9,29.82,North,9,0.0,0.0,90,0.00,,,0.00,0,Wunderground v.1.15,2013-07-20 09:06:00,
2013-07-20 04:07:00,63.9,60.9,29.82,North,9,0.0,0.0,90,0.00,,,0.00,0,Wunderground v.1.15,2013-07-20 09:07:00,
2013-07-20 04:08:00,63.8,61.1,29.82,North,9,0.0,0.0,91,0.00,,,0.00,0,Wunderground v.1.15,2013-07-20 09:08:00,
2013-07-20 04:09:00,63.8,61.1,29.82,North,9,0.0,0.0,91,0.00,,,0.00,0,Wunderground v.1.15,2013-07-20 09:09:00,
2013-07-20 04:10:00,63.7,61.0,29.81,North,9,0.0,0.0,91,0.00,,,0.00,0,Wunderground v.1.15,2013-07-20 09:10:00,
2013-07-20 04:12:00,63.6,60.9,29.81,North,9,0.0,0.0,91,0.00,,,0.00,0,Wunderground v.1.15,2013-07-20 09:12:00,
2013-07-20 04:13:00,63.5,60.8,29.81,North,9,0.0,0.0,91,0.00,,,0.00,0,Wunderground v.1.15,2013-07-20 09:13:00,
2013-07-20 04:15:00,63.3,60.6,29.81,North,9,0.0,0.0,91,0.00,,,0.00,0,Wunderground v.1.15,2013-07-20 09:15:00,
2013-07-20 04:19:00,62.9,60.5,29.81,North,9,0.0,0.0,92,0.00,,,0.00,0,Wunderground v.1.15,2013-07-20 09:19:00,
2013-07-20 04:21:00,62.8,60.4,29.81,North,9,0.0,0.0,92,0.00,,,0.00,0,Wunderground v.1.15,2013-07-20 09:21:00,
2013-07-20 04:22:00,62.7,60.3,29.81,North,9,0.0,0.0,92,0.00,,,0.00,0,Wunderground v.1.15,2013-07-20 09:22:00,
2013-07-20 04:24:00,62.7,60.3,29.81,North,9,0.0,0.0,92,0.00,,,0.00,0,Wunderground v.1.15,2013-07-20 09:24:00,
2013-07-20 04:25:00,62.7,60.3,29.81,North,9,0.0,0.0,92,0.00,,,0.00,0,Wunderground v.1.15,2013-07-20 09:25:00,
2013-07-20 04:26:00,62.7,60.3,29.81,North,9,0.0,0.0,92,0.00,,,0.00,0,Wunderground v.1.15,2013-07-20 09:26:00,
2013-07-20 04:30:00,62.6,60.2,29.81,North,9,0.0,0.0,92,0.00,,,0.00,0,Wunderground v.1.15,2013-07-20 09:30:00,
2013-07-20 04:31:00,62.6,60.2,29.81,North,9,0.0,0.0,92,0.00,,,0.00,0,Wunderground v.1.15,2013-07-20 09:31:00,
2013-07-20 04:32:00,62.6,60.2,29.81,North,9,0.0,0.0,92,0.00,,,0.00,0,Wunderground v.1.15,2013-07-20 09:32:00,
2013-07-20 04:36:00,62.3,59.6,29.81,North,9,0.0,0.0,91,0.00,,,0.00,0,Wunderground v.1.15,2013-07-20 09:36:00,
2013-07-20 04:37:00,62.3,59.6,29.81,North,9,0.0,0.0,91,0.00,,,0.00,0,Wunderground v.1.15,2013-07-20 09:37:00,
2013-07-20 04:39:00,61.9,59.2,29.82,North,9,0.0,0.0,91,0.00,,,0.00,0,Wunderground v.1.15,2013-07-20 09:39:00,
2013-07-20 04:41:00,61.6,58.9,29.82,North,9,0.0,0.0,91,0.00,,,0.00,0,Wunderground v.1.15,2013-07-20 09:41:00,
2013-07-20 04:42:00,61.5,58.8,29.82,North,9,0.0,0.0,91,0.00,,,0.00,0,Wunderground v.1.15,2013-07-20 09:42:00,
2013-07-20 04:44:00,61.2,58.6,29.82,North,9,0.0,0.0,91,0.00,,,0.00,0,Wunderground v.1.15,2013-07-20 09:44:00,
2013-07-20 04:46:00,61.1,58.5,29.82,North,9,0.0,0.0,91,0.00,,,0.00,0,Wunderground v.1.15,2013-07-20 09:46:00,
2013-07-20 04:47:00,60.9,58.6,29.82,North,9,0.0,0.0,92,0.00,,,0.00,0,Wunderground v.1.15,2013-07-20 09:47:00,
2013-07-20 04:48:00,60.9,58.6,29.82,North,9,0.0,0.0,92,0.00,,,0.00,0,Wunderground v.1.15,2013-07-20 09:48:00,
2013-07-20 04:52:00,60.5,58.2,29.82,North,9,0.0,0.0,92,0.00,,,0.00,0,Wunderground v.1.15,2013-07-20 09:52:00,
2013-07-20 04:53:00,60.4,58.1,29.82,North,9,0.0,0.0,92,0.00,,,0.00,0,Wunderground v.1.15,2013-07-20 09:53:00,
2013-07-20 04:54:00,60.4,58.1,29.82,North,9,0.0,0.0,92,0.00,,,0.00,0,Wunderground v.1.15,2013-07-20 09:54:00,
2013-07-20 04:57:00,60.3,58.0,29.82,North,9,0.0,0.0,92,0.00,,,0.00,0,Wunderground v.1.15,2013-07-20 09:57:00,
2013-07-20 04:58:00,60.3,58.0,29.82,North,9,0.0,0.0,92,0.00,,,0.00,0,Wunderground v.1.15,2013-07-20 09:58:00,
2013-07-20 04:59:00,60.2,57.9,29.82,North,9,0.0,0.0,92,0.00,,,0.00,0,Wunderground v.1.15,2013-07-20 09:59:00,
2013-07-20 05:00:00,60.2,58.2,29.82,North,9,0.0,0.0,93,0.00,,,0.00,0,Wunderground v.1.15,2013-07-20 10:00:00,
2013-07-20 05:01:00,60.2,58.2,29.82,North,9,0.0,0.0,93,0.00,,,0.00,0,Wunderground v.1.15,2013-07-20 10:01:00,
2013-07-20 05:04:00,60.0,57.7,29.82,North,9,0.0,0.0,92,0.00,,,0.00,0,Wunderground v.1.15,2013-07-20 10:04:00,
2013-07-20 05:05:00,59.9,57.9,29.82,North,9,0.0,0.0,93,0.00,,,0.00,0,Wunderground v.1.15,2013-07-20 10:05:00,
2013-07-20 05:06:00,59.9,57.9,29.82,North,9,0.0,0.0,93,0.00,,,0.00,0,Wunderground v.1.15,2013-07-20 10:06:00,
2013-07-20 05:07:00,59.9,57.9,29.82,North,9,0.0,0.0,93,0.00,,,0.00,0,Wunderground v.1.15,2013-07-20 10:07:00,
2013-07-20 05:09:00,59.8,57.8,29.82,North,9,0.0,0.0,93,0.00,,,0.00,0,Wunderground v.1.15,2013-07-20 10:09:00,
2013-07-20 05:13:00,59.5,57.5,29.82,North,9,0.0,0.0,93,0.00,,,0.00,0,Wunderground v.1.15,2013-07-20 10:13:00,
2013-07-20 05:14:00,59.5,57.5,29.82,North,9,0.0,0.0,93,0.00,,,0.00,0,Wunderground v.1.15,2013-07-20 10:14:00,
2013-07-20 05:15:00,59.4,57.4,29.82,North,9,0.0,0.0,93,0.00,,,0.00,0,Wunderground v.1.15,2013-07-20 10:15:00,
2013-07-20 05:19:00,59.4,57.7,29.82,North,9,0.0,0.0,94,0.00,,,0.00,0,Wunderground v.1.15,2013-07-20 10:19:00,
2013-07-20 05:20:00,59.4,57.7,29.82,North,9,0.0,0.0,94,0.00,,,0.00,0,Wunderground v.1.15,2013-07-20 10:20:00,
2013-07-20 05:21:00,59.5,57.8,29.82,North,9,0.0,0.0,94,0.00,,,0.00,0,Wunderground v.1.15,2013-07-20 10:21:00,
2013-07-20 05:24:00,59.3,57.3,29.82,North,9,0.0,0.0,93,0.00,,,0.00,0,Wunderground v.1.15,2013-07-20 10:24:00,
2013-07-20 05:25:00,59.2,57.2,29.81,North,9,0.0,0.0,93,0.00,,,0.00,0,Wunderground v.1.15,2013-07-20 10:25:00,
2013-07-20 05:26:00,59.1,57.1,29.82,North,9,0.0,0.0,93,0.00,,,0.00,0,Wunderground v.1.15,2013-07-20 10:26:00,
2013-07-20 05:30:00,58.9,56.9,29.81,North,9,0.0,0.0,93,0.00,,,0.00,0,Wunderground v.1.15,2013-07-20 10:30:00,
2013-07-20 05:31:00,58.9,57.2,29.81,North,9,0.0,0.0,94,0.00,,,0.00,0,Wunderground v.1.15,2013-07-20 10:31:00,
2013-07-20 05:33:00,59.0,57.3,29.81,North,9,0.0,0.0,94,0.00,,,0.00,0,Wunderground v.1.15,2013-07-20 10:33:00,
2013-07-20 05:35:00,58.9,57.2,29.81,North,9,0.0,0.0,94,0.00,,,0.00,0,Wunderground v.1.15,2013-07-20 10:35:00,
2013-07-20 05:37:00,58.9,57.2,29.81,North,9,0.0,0.0,94,0.00,,,0.00,0,Wunderground v.1.15,2013-07-20 10:37:00,
2013-07-20 05:38:00,59.0,57.3,29.81,North,9,0.0,0.0,94,0.00,,,0.00,0,Wunderground v.1.15,2013-07-20 10:38:00,
2013-07-20 05:40:00,59.1,57.4,29.81,North,9,0.0,0.0,94,0.00,,,0.00,0,Wunderground v.1.15,2013-07-20 10:40:00,
2013-07-20 05:42:00,59.0,57.3,29.81,North,9,0.0,0.0,94,0.00,,,0.00,0,Wunderground v.1.15,2013-07-20 10:42:00,
2013-07-20 05:45:00,59.0,57.3,29.81,North,9,0.0,0.0,94,0.00,,,0.00,0,Wunderground v.1.15,2013-07-20 10:45:00,
2013-07-20 05:46:00,59.0,57.3,29.81,North,9,0.0,0.0,94,0.00,,,0.00,0,Wunderground v.1.15,2013-07-20 10:46:00,
2013-07-20 05:48:00,59.0,57.6,29.81,North,9,0.0,0.0,95,0.00,,,0.00,0,Wunderground v.1.15,2013-07-20 10:48:00,
2013-07-20 05:51:00,59.1,57.7,29.81,North,9,0.0,0.0,95,0.00,,,0.00,0,Wunderground v.1.15,2013-07-20 10:51:00,
2013-07-20 05:52:00,59.2,57.8,29.81,North,9,0.0,0.0,95,0.00,,,0.00,0,Wunderground v.1.15,2013-07-20 10:52:00,
2013-07-20 05:53:00,59.4,58.0,29.81,North,9,0.0,0.0,95,0.00,,,0.00,0,Wunderground v.1.15,2013-07-20 10:53:00,
2013-07-20 05:56:00,59.5,58.1,29.80,North,9,0.0,0.0,95,0.00,,,0.00,0,Wunderground v.1.15,2013-07-20 10:56:00,
2013-07-20 05:57:00,59.6,58.2,29.80,North,9,0.0,0.0,95,0.00,,,0.00,0,Wunderground v.1.15,2013-07-20 10:57:00,
2013-07-20 05:58:00,59.6,58.2,29.80,North,9,0.0,0.0,95,0.00,,,0.00,5,Wunderground v.1.15,2013-07-20 10:58:00,
2013-07-20 06:02:00,59.3,57.9,29.81,North,9,0.0,0.0,95,0.00,,,0.00,5,Wunderground v.1.15,2013-07-20 11:02:00,
2013-07-20 06:03:00,59.1,57.4,29.81,North,9,0.0,0.0,94,0.00,,,0.00,7,Wunderground v.1.15,2013-07-20 11:03:00,
2013-07-20 06:04:00,59.1,57.4,29.81,North,9,0.0,0.0,94,0.00,,,0.00,7,Wunderground v.1.15,2013-07-20 11:04:00,
2013-07-20 06:07:00,59.5,58.1,29.81,North,9,0.0,0.0,95,0.00,,,0.00,9,Wunderground v.1.15,2013-07-20 11:07:00,
2013-07-20 06:08:00,59.6,58.2,29.81,North,9,0.0,0.0,95,0.00,,,0.00,9,Wunderground v.1.15,2013-07-20 11:08:00,
2013-07-20 06:09:00,59.6,58.2,29.81,North,9,0.0,0.0,95,0.00,,,0.00,9,Wunderground v.1.15,2013-07-20 11:09:00,
2013-07-20 06:13:00,59.5,58.1,29.81,North,9,0.0,0.0,95,0.00,,,0.00,12,Wunderground v.1.15,2013-07-20 11:13:00,
2013-07-20 06:14:00,59.3,57.6,29.81,North,9,0.0,0.0,94,0.00,,,0.00,12,Wunderground v.1.15,2013-07-20 11:14:00,
2013-07-20 06:16:00,59.1,57.4,29.81,North,9,0.0,0.0,94,0.00,,,0.00,14,Wunderground v.1.15,2013-07-20 11:16:00,
2013-07-20 06:18:00,59.0,57.3,29.81,North,9,0.0,0.0,94,0.00,,,0.00,16,Wunderground v.1.15,2013-07-20 11:18:00,
2013-07-20 06:20:00,59.0,57.6,29.81,North,9,0.0,0.0,95,0.00,,,0.00,16,Wunderground v.1.15,2013-07-20 11:20:00,
2013-07-20 06:21:00,58.9,57.5,29.81,North,9,0.0,0.0,95,0.00,,,0.00,18,Wunderground v.1.15,2013-07-20 11:21:00,
2013-07-20 06:23:00,58.7,57.0,29.81,North,9,0.0,0.0,94,0.00,,,0.00,19,Wunderground v.1.15,2013-07-20 11:23:00,
2013-07-20 06:25:00,58.8,57.4,29.81,North,9,0.0,0.0,95,0.00,,,0.00,19,Wunderground v.1.15,2013-07-20 11:25:00,
2013-07-20 06:26:00,59.0,57.6,29.81,North,9,0.0,0.0,95,0.00,,,0.00,19,Wunderground v.1.15,2013-07-20 11:26:00,
2013-07-20 06:27:00,59.2,57.8,29.81,North,9,0.0,0.0,95,0.00,,,0.00,21,Wunderground v.1.15,2013-07-20 11:27:00,
2013-07-20 06:29:00,59.5,58.1,29.81,North,9,0.0,0.0,95,0.00,,,0.00,23,Wunderground v.1.15,2013-07-20 11:29:00,
2013-07-20 06:30:00,59.6,58.2,29.81,North,9,0.0,0.0,95,0.00,,,0.00,28,Wunderground v.1.15,2013-07-20 11:30:00,
2013-07-20 06:31:00,59.7,58.3,29.81,North,9,0.0,0.0,95,0.00,,,0.00,28,Wunderground v.1.15,2013-07-20 11:31:00,
2013-07-20 06:32:00,59.8,58.4,29.81,North,9,0.0,0.0,95,0.00,,,0.00,30,Wunderground v.1.15,2013-07-20 11:32:00,
2013-07-20 06:35:00,60.1,58.7,29.82,North,9,0.0,0.0,95,0.00,,,0.00,35,Wunderground v.1.15,2013-07-20 11:35:00,
2013-07-20 06:36:00,60.2,58.8,29.81,North,9,0.0,0.0,95,0.00,,,0.00,37,Wunderground v.1.15,2013-07-20 11:36:00,
2013-07-20 06:37:00,60.2,58.8,29.81,North,9,0.0,0.0,95,0.00,,,0.00,37,Wunderground v.1.15,2013-07-20 11:37:00,
2013-07-20 06:38:00,60.2,58.8,29.81,North,9,0.0,0.0,95,0.00,,,0.00,40,Wunderground v.1.15,2013-07-20 11:38:00,
2013-07-20 06:42:00,60.1,58.7,29.82,North,9,0.0,0.0,95,0.00,,,0.00,46,Wunderground v.1.15,2013-07-20 11:42:00,
2013-07-20 06:43:00,60.2,58.8,29.82,North,9,0.0,0.0,95,0.00,,,0.00,49,Wunderground v.1.15,2013-07-20 11:43:00,
2013-07-20 06:44:00,60.1,58.7,29.82,North,9,0.0,0.0,95,0.00,,,0.00,53,Wunderground v.1.15,2013-07-20 11:44:00,
2013-07-20 06:47:00,60.1,58.7,29.82,North,9,0.0,0.0,95,0.00,,,0.00,58,Wunderground v.1.15,2013-07-20 11:47:00,
2013-07-20 06:48:00,60.2,58.8,29.82,North,9,0.0,0.0,95,0.00,,,0.00,60,Wunderground v.1.15,2013-07-20 11:48:00,
2013-07-20 06:51:00,60.6,59.2,29.82,North,9,0.0,0.0,95,0.00,,,0.00,69,Wunderground v.1.15,2013-07-20 11:51:00,
2013-07-20 06:53:00,60.9,59.5,29.82,North,9,0.0,0.0,95,0.00,,,0.00,70,Wunderground v.1.15,2013-07-20 11:53:00,
2013-07-20 06:54:00,61.1,59.7,29.82,North,9,0.0,0.0,95,0.00,,,0.00,76,Wunderground v.1.15,2013-07-20 11:54:00,
2013-07-20 06:56:00,61.6,60.2,29.82,North,9,0.0,0.0,95,0.00,,,0.00,83,Wunderground v.1.15,2013-07-20 11:56:00,
2013-07-20 06:58:00,61.6,60.2,29.82,North,9,0.0,0.0,95,0.00,,,0.00,88,Wunderground v.1.15,2013-07-20 11:58:00,
2013-07-20 06:59:00,61.6,60.2,29.82,North,9,0.0,0.0,95,0.00,,,0.00,90,Wunderground v.1.15,2013-07-20 11:59:00,
2013-07-20 07:00:00,61.6,59.9,29.82,North,9,0.0,0.0,94,0.00,,,0.00,95,Wunderground v.1.15,2013-07-20 12:00:00,
2013-07-20 07:01:00,61.7,60.0,29.82,North,9,0.0,0.0,94,0.00,,,0.00,98,Wunderground v.1.15,2013-07-20 12:01:00,
2013-07-20 07:03:00,61.8,60.1,29.82,North,9,0.0,0.0,94,0.00,,,0.00,104,Wunderground v.1.15,2013-07-20 12:03:00,
2013-07-20 07:04:00,61.9,60.2,29.82,North,9,0.0,0.0,94,0.00,,,0.00,105,Wunderground v.1.15,2013-07-20 12:04:00,
2013-07-20 07:05:00,62.0,60.3,29.82,North,9,0.0,0.0,94,0.00,,,0.00,111,Wunderground v.1.15,2013-07-20 12:05:00,
2013-07-20 07:06:00,62.1,60.4,29.82,North,9,0.0,0.0,94,0.00,,,0.00,111,Wunderground v.1.15,2013-07-20 12:06:00,
2013-07-20 07:10:00,62.7,60.9,29.82,North,9,0.0,0.0,94,0.00,,,0.00,123,Wunderground v.1.15,2013-07-20 12:10:00,
2013-07-20 07:11:00,62.8,61.0,29.82,North,9,0.0,0.0,94,0.00,,,0.00,128,Wunderground v.1.15,2013-07-20 12:11:00,
2013-07-20 07:12:00,62.9,61.1,29.82,North,9,0.0,0.0,94,0.00,,,0.00,130,Wunderground v.1.15,2013-07-20 12:12:00,
2013-07-20 07:15:00,63.2,61.4,29.82,North,9,0.0,0.0,94,0.00,,,0.00,141,Wunderground v.1.15,2013-07-20 12:15:00,
2013-07-20 07:16:00,63.3,61.5,29.82,North,9,0.0,0.0,94,0.00,,,0.00,146,Wunderground v.1.15,2013-07-20 12:16:00,
2013-07-20 07:17:00,63.4,61.6,29.82,North,9,0.0,0.0,94,0.00,,,0.00,146,Wunderground v.1.15,2013-07-20 12:17:00,
2013-07-20 07:18:00,63.5,61.7,29.82,North,9,0.0,0.0,94,0.00,,,0.00,144,Wunderground v.1.15,2013-07-20 12:18:00,
2013-07-20 07:20:00,63.7,61.6,29.82,North,9,0.0,0.0,93,0.00,,,0.00,128,Wunderground v.1.15,2013-07-20 12:20:00,
2013-07-20 07:22:00,63.9,61.8,29.82,North,9,0.0,0.0,93,0.00,,,0.00,137,Wunderground v.1.15,2013-07-20 12:22:00,
2013-07-20 07:23:00,64.3,62.5,29.82,North,9,0.0,0.0,94,0.00,,,0.00,153,Wunderground v.1.15,2013-07-20 12:23:00,
2013-07-20 07:24:00,64.4,62.6,29.82,North,9,0.0,0.0,94,0.00,,,0.00,153,Wunderground v.1.15,2013-07-20 12:24:00,
2013-07-20 07:26:00,64.6,62.5,29.82,North,9,0.0,0.0,93,0.00,,,0.00,179,Wunderground v.1.15,2013-07-20 12:26:00,
2013-07-20 07:28:00,65.0,62.9,29.82,North,9,0.0,0.0,93,0.00,,,0.00,183,Wunderground v.1.15,2013-07-20 12:28:00,
2013-07-20 07:29:00,65.1,63.0,29.82,North,9,0.0,0.0,93,0.00,,,0.00,185,Wunderground v.1.15,2013-07-20 12:29:00,
2013-07-20 07:31:00,65.6,63.5,29.82,North,9,0.0,0.0,93,0.00,,,0.00,192,Wunderground v.1.15,2013-07-20 12:31:00,
2013-07-20 07:34:00,66.2,63.5,29.82,North,9,0.0,0.0,91,0.00,,,0.00,202,Wunderground v.1.15,2013-07-20 12:34:00,
2013-07-20 07:36:00,66.6,63.9,29.82,North,9,0.0,0.0,91,0.00,,,0.00,204,Wunderground v.1.15,2013-07-20 12:36:00,
2013-07-20 07:38:00,67.2,64.2,29.82,North,9,0.0,0.0,90,0.00,,,0.00,211,Wunderground v.1.15,2013-07-20 12:38:00,
2013-07-20 07:41:00,67.5,64.1,29.83,North,360,0.0,0.0,89,0.00,,,0.00,221,Wunderground v.1.15,2013-07-20 12:41:00,
2013-07-20 07:42:00,67.5,63.8,29.83,North,360,0.0,0.0,88,0.00,,,0.00,223,Wunderground v.1.15,2013-07-20 12:42:00,
2013-07-20 07:43:00,67.5,63.8,29.83,North,360,0.0,0.0,88,0.00,,,0.00,223,Wunderground v.1.15,2013-07-20 12:43:00,
2013-07-20 07:44:00,67.4,63.7,29.83,North,360,0.0,0.0,88,0.00,,,0.00,229,Wunderground v.1.15,2013-07-20 12:44:00,
2013-07-20 07:47:00,67.7,64.0,29.83,North,360,0.0,0.0,88,0.00,,,0.00,236,Wunderground v.1.15,2013-07-20 12:47:00,
2013-07-20 07:49:00,68.0,64.3,29.83,North,360,0.0,0.0,88,0.00,,,0.00,243,Wunderground v.1.15,2013-07-20 12:49:00,
2013-07-20 07:52:00,68.2,64.2,29.83,North,360,0.0,0.0,87,0.00,,,0.00,250,Wunderground v.1.15,2013-07-20 12:52:00,
2013-07-20 07:53:00,68.3,64.3,29.83,North,360,0.0,0.0,87,0.00,,,0.00,253,Wunderground v.1.15,2013-07-20 12:53:00,
2013-07-20 07:54:00,68.3,64.3,29.83,North,360,0.0,0.0,87,0.00,,,0.00,257,Wunderground v.1.15,2013-07-20 12:54:00,
2013-07-20 07:55:00,68.3,64.3,29.83,North,360,0.0,0.0,87,0.00,,,0.00,257,Wunderground v.1.15,2013-07-20 12:55:00,
2013-07-20 07:57:00,68.5,64.8,29.83,North,360,0.0,0.0,88,0.00,,,0.00,262,Wunderground v.1.15,2013-07-20 12:57:00,
2013-07-20 07:58:00,68.5,64.5,29.83,North,360,0.0,0.0,87,0.00,,,0.00,265,Wunderground v.1.15,2013-07-20 12:58:00,
2013-07-20 07:59:00,68.7,64.7,29.83,North,360,0.0,0.0,87,0.00,,,0.00,267,Wunderground v.1.15,2013-07-20 12:59:00,
2013-07-20 08:00:00,68.8,64.8,29.83,North,360,0.0,0.0,87,0.00,,,0.00,274,Wunderground v.1.15,2013-07-20 13:00:00,
2013-07-20 08:02:00,69.1,65.1,29.83,North,360,0.0,0.0,87,0.00,,,0.00,279,Wunderground v.1.15,2013-07-20 13:02:00,
2013-07-20 08:03:00,69.3,64.9,29.83,North,360,0.0,0.0,86,0.00,,,0.00,283,Wunderground v.1.15,2013-07-20 13:03:00,
2013-07-20 08:04:00,69.4,65.4,29.83,North,360,0.0,0.0,87,0.00,,,0.00,287,Wunderground v.1.15,2013-07-20 13:04:00,
2013-07-20 08:07:00,69.4,65.4,29.83,North,360,0.0,0.0,87,0.00,,,0.00,294,Wunderground v.1.15,2013-07-20 13:07:00,
2013-07-20 08:09:00,69.5,65.1,29.83,North,360,0.0,0.0,86,0.00,,,0.00,297,Wunderground v.1.15,2013-07-20 13:09:00,
2013-07-20 08:12:00,69.8,65.4,29.83,North,360,0.0,0.0,86,0.00,,,0.00,311,Wunderground v.1.15,2013-07-20 13:12:00,
2013-07-20 08:13:00,69.9,65.2,29.83,North,360,0.0,0.0,85,0.00,,,0.00,315,Wunderground v.1.15,2013-07-20 13:13:00,
2013-07-20 08:15:00,70.1,65.4,29.83,North,360,0.0,0.0,85,0.00,,,0.00,320,Wunderground v.1.15,2013-07-20 13:15:00,
2013-07-20 08:16:00,70.3,65.6,29.83,North,360,0.0,0.0,85,0.00,,,0.00,323,Wunderground v.1.15,2013-07-20 13:16:00,
2013-07-20 08:17:00,70.4,65.3,29.83,North,360,0.0,0.0,84,0.00,,,0.00,325,Wunderground v.1.15,2013-07-20 13:17:00,
2013-07-20 08:19:00,70.7,66.0,29.83,North,360,0.0,0.0,85,0.00,,,0.00,330,Wunderground v.1.15,2013-07-20 13:19:00,
2013-07-20 08:21:00,70.8,65.4,29.83,North,360,1.0,2.0,83,0.00,,,0.00,338,Wunderground v.1.15,2013-07-20 13:21:00,
2013-07-20 08:22:00,70.9,65.5,29.83,North,360,2.0,2.0,83,0.00,,,0.00,338,Wunderground v.1.15,2013-07-20 13:22:00,
2013-07-20 08:24:00,71.1,65.7,29.83,North,360,0.0,2.0,83,0.00,,,0.00,345,Wunderground v.1.15,2013-07-20 13:24:00,
2013-07-20 08:25:00,71.3,65.5,29.84,North,360,1.0,2.0,82,0.00,,,0.00,348,Wunderground v.1.15,2013-07-20 13:25:00,
2013-07-20 08:27:00,71.5,65.4,29.84,North,360,1.0,2.0,81,0.00,,,0.00,353,Wunderground v.1.15,2013-07-20 13:27:00,
2013-07-20 08:28:00,71.6,65.5,29.84,North,360,0.0,2.0,81,0.00,,,0.00,359,Wunderground v.1.15,2013-07-20 13:28:00,
2013-07-20 08:29:00,71.7,65.2,29.84,North,360,0.0,2.0,80,0.00,,,0.00,360,Wunderground v.1.15,2013-07-20 13:29:00,
2013-07-20 08:31:00,72.0,65.8,29.84,North,360,1.0,2.0,81,0.00,,,0.00,366,Wunderground v.1.15,2013-07-20 13:31:00,
2013-07-20 08:34:00,72.4,65.9,29.84,North,355,0.0,2.0,80,0.00,,,0.00,373,Wunderground v.1.15,2013-07-20 13:34:00,
2013-07-20 08:35:00,72.5,66.0,29.84,North,355,0.0,2.0,80,0.00,,,0.00,374,Wunderground v.1.15,2013-07-20 13:35:00,
2013-07-20 08:36:00,72.6,65.3,29.84,North,355,0.0,2.0,78,0.00,,,0.00,381,Wunderground v.1.15,2013-07-20 13:36:00,
2013-07-20 08:39:00,72.9,66.0,29.84,North,355,0.0,2.0,79,0.00,,,0.00,388,Wunderground v.1.15,2013-07-20 13:39:00,
2013-07-20 08:40:00,73.0,66.1,29.84,North,355,0.0,2.0,79,0.00,,,0.00,392,Wunderground v.1.15,2013-07-20 13:40:00,
2013-07-20 08:42:00,73.2,65.9,29.84,North,355,0.0,0.0,78,0.00,,,0.00,399,Wunderground v.1.15,2013-07-20 13:42:00,
2013-07-20 08:44:00,73.3,65.7,29.84,North,355,0.0,0.0,77,0.00,,,0.00,406,Wunderground v.1.15,2013-07-20 13:44:00,
2013-07-20 08:45:00,73.4,66.1,29.84,North,355,0.0,0.0,78,0.00,,,0.00,410,Wunderground v.1.15,2013-07-20 13:45:00,
2013-07-20 08:46:00,73.5,65.8,29.84,North,355,0.0,0.0,77,0.00,,,0.00,410,Wunderground v.1.15,2013-07-20 13:46:00,
2013-07-20 08:47:00,73.7,65.7,29.84,North,355,0.0,0.0,76,0.00,,,0.00,415,Wunderground v.1.15,2013-07-20 13:47:00,
2013-07-20 08:48:00,73.8,65.8,29.84,North,355,0.0,0.0,76,0.00,,,0.00,418,Wunderground v.1.15,2013-07-20 13:48:00,
2013-07-20 08:49:00,74.2,66.9,29.84,North,355,0.0,0.0,78,0.00,,,0.00,420,Wunderground v.1.15,2013-07-20 13:49:00,
2013-07-20 08:51:00,74.4,66.3,29.84,North,355,0.0,0.0,76,0.00,,,0.00,427,Wunderground v.1.15,2013-07-20 13:51:00,
2013-07-20 08:53:00,75.0,66.1,29.84,North,355,0.0,0.0,74,0.00,,,0.00,432,Wunderground v.1.15,2013-07-20 13:53:00,
2013-07-20 08:54:00,75.5,66.6,29.84,NNE,15,0.0,2.0,74,0.00,,,0.00,443,Wunderground v.1.15,2013-07-20 13:54:00,
2013-07-20 08:57:00,76.2,65.7,29.84,NNE,29,1.0,3.0,70,0.00,,,0.00,455,Wunderground v.1.15,2013-07-20 13:57:00,
2013-07-20 08:58:00,76.1,65.6,29.84,NNE,30,1.0,3.0,70,0.00,,,0.00,462,Wunderground v.1.15,2013-07-20 13:58:00,
2013-07-20 08:59:00,76.0,65.5,29.84,NNE,30,0.0,3.0,70,0.00,,,0.00,462,Wunderground v.1.15,2013-07-20 13:59:00,
2013-07-20 09:00:00,76.1,66.0,29.84,NNE,27,2.0,2.0,71,0.00,,,0.00,473,Wunderground v.1.15,2013-07-20 14:00:00,
2013-07-20 09:03:00,76.8,66.3,29.85,NNW,338,2.0,2.0,70,0.00,,,0.00,490,Wunderground v.1.15,2013-07-20 14:03:00,
2013-07-20 09:05:00,76.9,65.5,29.85,NNW,338,1.0,2.0,68,0.00,,,0.00,510,Wunderground v.1.15,2013-07-20 14:05:00,
2013-07-20 09:06:00,77.0,65.6,29.85,NNW,338,2.0,2.0,68,0.00,,,0.00,517,Wunderground v.1.15,2013-07-20 14:06:00,
2013-07-20 09:08:00,76.8,65.0,29.85,NW,322,1.0,3.0,67,0.00,,,0.00,492,Wunderground v.1.15,2013-07-20 14:08:00,
2013-07-20 09:10:00,76.5,66.0,29.86,NNW,348,0.0,2.0,70,0.00,,,0.00,533,Wunderground v.1.15,2013-07-20 14:10:00,
2013-07-20 09:11:00,76.5,66.0,29.86,NW,308,3.0,3.0,70,0.00,,,0.00,503,Wunderground v.1.15,2013-07-20 14:11:00,
2013-07-20 09:13:00,76.7,67.0,29.87,WNW,301,2.0,4.0,72,0.00,,,0.00,555,Wunderground v.1.15,2013-07-20 14:13:00,
2013-07-20 09:14:00,76.7,67.0,29.87,WNW,301,0.0,4.0,72,0.00,,,0.00,541,Wunderground v.1.15,2013-07-20 14:14:00,
2013-07-20 09:15:00,76.8,66.7,29.87,North,355,1.0,4.0,71,0.00,,,0.00,533,Wunderground v.1.15,2013-07-20 14:15:00,
2013-07-20 09:17:00,77.2,66.7,29.87,NW,324,0.0,4.0,70,0.00,,,0.00,504,Wunderground v.1.15,2013-07-20 14:17:00,
2013-07-20 09:18:00,77.4,66.4,29.88,WNW,294,6.0,6.0,69,0.00,,,0.00,504,Wunderground v.1.15,2013-07-20 14:18:00,
2013-07-20 09:20:00,77.3,66.3,29.88,NW,314,4.0,4.0,69,0.00,,,0.00,599,Wunderground v.1.15,2013-07-20 14:20:00,
2013-07-20 09:23:00,77.4,66.0,29.88,NW,309,1.0,5.0,68,0.00,,,0.00,601,Wunderground v.1.15,2013-07-20 14:23:00,
2013-07-20 09:24:00,77.4,66.0,29.88,NW,304,0.0,5.0,68,0.00,,,0.00,561,Wunderground v.1.15,2013-07-20 14:24:00,
2013-07-20 09:25:00,77.4,66.4,29.88,NW,313,2.0,5.0,69,0.00,,,0.00,524,Wunderground v.1.15,2013-07-20 14:25:00,
2013-07-20 09:29:00,77.2,66.2,29.88,NW,304,4.0,7.0,69,0.00,,,0.00,563,Wunderground v.1.15,2013-07-20 14:29:00,
2013-07-20 09:31:00,77.2,66.2,29.87,NW,306,0.0,4.0,69,0.00,,,0.00,587,Wunderground v.1.15,2013-07-20 14:31:00,
2013-07-20 09:35:00,78.0,66.6,29.87,NW,323,1.0,4.0,68,0.00,,,0.00,445,Wunderground v.1.15,2013-07-20 14:35:00,
2013-07-20 09:37:00,78.0,65.7,29.87,NNW,343,1.0,4.0,66,0.00,,,0.00,438,Wunderground v.1.15,2013-07-20 14:37:00,
2013-07-20 09:40:00,77.6,65.3,29.87,NW,316,0.0,1.0,66,0.00,,,0.00,554,Wunderground v.1.15,2013-07-20 14:40:00,
2013-07-20 09:41:00,77.5,65.2,29.87,NW,315,0.0,1.0,66,0.00,,,0.00,531,Wunderground v.1.15,2013-07-20 14:41:00,
2013-07-20 09:42:00,77.3,65.5,29.87,NW,309,3.0,3.0,67,0.00,,,0.00,613,Wunderground v.1.15,2013-07-20 14:42:00,
2013-07-20 09:45:00,77.3,65.9,29.87,NW,317,0.0,5.0,68,0.00,,,0.00,598,Wunderground v.1.15,2013-07-20 14:45:00,
2013-07-20 09:46:00,77.9,66.9,29.87,NW,317,0.0,5.0,69,0.00,,,0.00,636,Wunderground v.1.15,2013-07-20 14:46:00,
2013-07-20 09:47:00,77.9,66.9,29.87,NW,317,0.0,5.0,69,0.00,,,0.00,610,Wunderground v.1.15,2013-07-20 14:47:00,
2013-07-20 09:48:00,78.3,67.3,29.87,NW,315,2.0,5.0,69,0.00,,,0.00,533,Wunderground v.1.15,2013-07-20 14:48:00,
2013-07-20 09:52:00,78.4,66.1,29.88,NW,316,0.0,1.0,66,0.00,,,0.00,640,Wunderground v.1.15,2013-07-20 14:52:00,
2013-07-20 09:54:00,78.8,67.3,29.88,NW,316,0.0,1.0,68,0.00,,,0.00,670,Wunderground v.1.15,2013-07-20 14:54:00,
2013-07-20 09:56:00,78.7,65.9,29.87,NW,308,1.0,5.0,65,0.00,,,0.00,587,Wunderground v.1.15,2013-07-20 14:56:00,
2013-07-20 09:57:00,78.6,65.8,29.88,NW,304,3.0,5.0,65,0.00,,,0.00,587,Wunderground v.1.15,2013-07-20 14:57:00,
2013-07-20 09:59:00,79.0,67.1,29.87,NNW,336,0.0,5.0,67,0.00,,,0.00,573,Wunderground v.1.15,2013-07-20 14:59:00,
2013-07-20 10:01:00,79.0,66.2,29.87,NW,317,0.0,3.0,65,0.00,,,0.00,550,Wunderground v.1.15,2013-07-20 15:01:00,
2013-07-20 10:02:00,78.7,66.4,29.87,NW,314,2.0,3.0,66,0.00,,,0.00,650,Wunderground v.1.15,2013-07-20 15:02:00,
2013-07-20 10:03:00,78.7,65.9,29.87,NW,314,3.0,3.0,65,0.00,,,0.00,650,Wunderground v.1.15,2013-07-20 15:03:00,
2013-07-20 10:06:00,78.6,65.8,29.88,NW,314,0.0,3.0,65,0.00,,,0.00,652,Wunderground v.1.15,2013-07-20 15:06:00,
2013-07-20 10:07:00,78.7,66.4,29.87,NW,314,0.0,3.0,66,0.00,,,0.00,666,Wunderground v.1.15,2013-07-20 15:07:00,
2013-07-20 10:08:00,78.9,66.1,29.87,NW,315,0.0,3.0,65,0.00,,,0.00,666,Wunderground v.1.15,2013-07-20 15:08:00,
2013-07-20 10:11:00,79.8,64.2,29.87,NNE,23,0.0,4.0,59,0.00,,,0.00,710,Wunderground v.1.15,2013-07-20 15:11:00,
2013-07-20 10:12:00,79.8,64.2,29.87,NNE,23,0.0,4.0,59,0.00,,,0.00,710,Wunderground v.1.15,2013-07-20 15:12:00,
2013-07-20 10:13:00,79.9,64.8,29.87,NNE,19,3.0,4.0,60,0.00,,,0.00,510,Wunderground v.1.15,2013-07-20 15:13:00,
2013-07-20 10:14:00,80.0,65.3,29.87,NNE,28,1.0,4.0,61,0.00,,,0.00,473,Wunderground v.1.15,2013-07-20 15:14:00,
2013-07-20 10:17:00,80.6,64.5,29.87,NNE,21,1.0,4.0,58,0.00,,,0.00,707,Wunderground v.1.15,2013-07-20 15:17:00,
2013-07-20 10:19:00,80.7,65.5,29.87,NNE,21,1.0,4.0,60,0.00,,,0.00,673,Wunderground v.1.15,2013-07-20 15:19:00,
2013-07-20 10:20:00,80.9,63.7,29.87,East,79,2.0,7.0,56,0.00,,,0.00,694,Wunderground v.1.15,2013-07-20 15:20:00,
2013-07-20 10:22:00,80.7,64.1,29.87,NNE,15,1.0,7.0,57,0.00,,,0.00,705,Wunderground v.1.15,2013-07-20 15:22:00,
2013-07-20 10:24:00,80.9,64.7,29.87,North,351,3.0,7.0,58,0.00,,,0.00,612,Wunderground v.1.15,2013-07-20 15:24:00,
2013-07-20 10:25:00,80.8,65.1,29.87,NNW,338,1.0,7.0,59,0.00,,,0.00,612,Wunderground v.1.15,2013-07-20 15:25:00,
2013-07-20 10:26:00,80.7,65.0,29.87,NNW,338,1.0,7.0,59,0.00,,,0.00,612,Wunderground v.1.15,2013-07-20 15:26:00,
2013-07-20 10:27:00,80.1,64.0,29.87,NNW,338,0.0,7.0,58,0.00,,,0.00,686,Wunderground v.1.15,2013-07-20 15:27:00,
2013-07-20 10:30:00,79.7,65.5,29.87,NNW,338,1.0,1.0,62,0.00,,,0.00,561,Wunderground v.1.15,2013-07-20 15:30:00,
2013-07-20 10:31:00,80.0,66.7,29.87,North,350,0.0,2.0,64,0.00,,,0.00,561,Wunderground v.1.15,2013-07-20 15:31:00,
2013-07-20 10:34:00,80.5,65.8,29.87,ENE,57,0.0,2.0,61,0.00,,,0.00,728,Wunderground v.1.15,2013-07-20 15:34:00,
2013-07-20 10:36:00,81.0,64.8,29.87,North,10,5.0,5.0,58,0.00,,,0.00,708,Wunderground v.1.15,2013-07-20 15:36:00,
2013-07-20 10:37:00,81.1,63.4,29.87,NE,37,1.0,5.0,55,0.00,,,0.00,612,Wunderground v.1.15,2013-07-20 15:37:00,
2013-07-20 10:38:00,81.1,63.4,29.87,North,9,4.0,5.0,55,0.00,,,0.00,612,Wunderground v.1.15,2013-07-20 15:38:00,
2013-07-20 10:40:00,81.2,63.5,29.88,NE,49,0.0,1.0,55,0.00,,,0.00,728,Wunderground v.1.15,2013-07-20 15:40:00,
2013-07-20 10:43:00,81.4,63.7,29.88,NNE,29,3.0,4.0,55,0.00,,,0.00,733,Wunderground v.1.15,2013-07-20 15:43:00,
2013-07-20 10:44:00,81.2,62.4,29.88,NNE,29,0.0,4.0,53,0.00,,,0.00,722,Wunderground v.1.15,2013-07-20 15:44:00,
2013-07-20 10:47:00,80.7,62.0,29.88,NE,40,0.0,4.0,53,0.00,,,0.00,738,Wunderground v.1.15,2013-07-20 15:47:00,
2013-07-20 10:49:00,80.9,63.7,29.88,NNE,33,0.0,4.0,56,0.00,,,0.00,744,Wunderground v.1.15,2013-07-20 15:49:00,
2013-07-20 10:50:00,81.4,66.2,29.88,NNE,26,1.0,1.0,60,0.00,,,0.00,745,Wunderground v.1.15,2013-07-20 15:50:00,
2013-07-20 10:51:00,81.9,63.6,29.88,NE,37,0.0,2.0,54,0.00,,,0.00,749,Wunderground v.1.15,2013-07-20 15:51:00,
2013-07-20 10:53:00,81.7,64.0,29.88,East,88,5.0,5.0,55,0.00,,,0.00,752,Wunderground v.1.15,2013-07-20 15:53:00,
2013-07-20 10:54:00,81.6,62.3,29.88,ENE,67,3.0,5.0,52,0.00,,,0.00,756,Wunderground v.1.15,2013-07-20 15:54:00,
2013-07-20 10:55:00,81.5,62.2,29.88,NE,40,2.0,5.0,52,0.00,,,0.00,756,Wunderground v.1.15,2013-07-20 15:55:00,
2013-07-20 10:56:00,81.4,61.0,29.88,NE,46,0.0,5.0,50,0.00,,,0.00,759,Wunderground v.1.15,2013-07-20 15:56:00,
2013-07-20 10:57:00,81.1,61.3,29.88,ENE,69,3.0,5.0,51,0.00,,,0.00,761,Wunderground v.1.15,2013-07-20 15:57:00,
2013-07-20 10:58:00,80.9,60.5,29.88,ENE,69,1.0,5.0,50,0.00,,,0.00,759,Wunderground v.1.15,2013-07-20 15:58:00,
2013-07-20 11:00:00,81.2,61.9,29.88,NE,46,2.0,2.0,52,0.00,,,0.00,768,Wunderground v.1.15,2013-07-20 16:00:00,
2013-07-20 11:01:00,81.2,61.4,29.88,ENE,61,2.0,2.0,51,0.00,,,0.00,768,Wunderground v.1.15,2013-07-20 16:01:00,
2013-07-20 11:02:00,81.2,63.0,29.88,NE,55,1.0,2.0,54,0.00,,,0.00,770,Wunderground v.1.15,2013-07-20 16:02:00,
2013-07-20 11:03:00,81.6,62.8,29.88,NNE,22,2.0,2.0,53,0.00,,,0.00,770,Wunderground v.1.15,2013-07-20 16:03:00,
2013-07-20 11:06:00,82.1,63.8,29.88,WNW,298,1.0,3.0,54,0.00,,,0.00,773,Wunderground v.1.15,2013-07-20 16:06:00,
2013-07-20 11:07:00,82.0,63.2,29.88,WNW,302,1.0,3.0,53,0.00,,,0.00,779,Wunderground v.1.15,2013-07-20 16:07:00,
2013-07-20 11:09:00,81.9,64.1,29.88,NW,304,0.0,3.0,55,0.00,,,0.00,784,Wunderground v.1.15,2013-07-20 16:09:00,
2013-07-20 11:10:00,82.2,63.4,29.88,NW,319,0.0,2.0,53,0.00,,,0.00,786,Wunderground v.1.15,2013-07-20 16:10:00,
2013-07-20 11:12:00,82.6,64.3,29.88,NE,42,2.0,2.0,54,0.00,,,0.00,788,Wunderground v.1.15,2013-07-20 16:12:00,
2013-07-20 11:14:00,83.2,63.7,29.88,NNE,29,2.0,3.0,52,0.00,,,0.00,795,Wunderground v.1.15,2013-07-20 16:14:00,
2013-07-20 11:15:00,83.0,63.0,29.88,East,85,6.0,6.0,51,0.00,,,0.00,795,Wunderground v.1.15,2013-07-20 16:15:00,
2013-07-20 11:17:00,82.6,62.6,29.88,NNE,20,2.0,6.0,51,0.00,,,0.00,798,Wunderground v.1.15,2013-07-20 16:17:00,
2013-07-20 11:18:00,82.7,62.7,29.88,NNE,21,1.0,6.0,51,0.00,,,0.00,802,Wunderground v.1.15,2013-07-20 16:18:00,
2013-07-20 11:20:00,82.7,63.8,29.88,North,355,2.0,2.0,53,0.00,,,0.00,805,Wunderground v.1.15,2013-07-20 16:20:00,
2013-07-20 11:21:00,82.8,63.9,29.88,North,355,1.0,2.0,53,0.00,,,0.00,807,Wunderground v.1.15,2013-07-20 16:21:00,
2013-07-20 11:22:00,83.0,63.6,29.88,NNE,22,4.0,4.0,52,0.00,,,0.00,814,Wunderground v.1.15,2013-07-20 16:22:00,
2013-07-20 11:23:00,83.2,63.7,29.88,NNE,18,2.0,4.0,52,0.00,,,0.00,814,Wunderground v.1.15,2013-07-20 16:23:00,
2013-07-20 11:25:00,82.9,62.4,29.88,ENE,63,1.0,4.0,50,0.00,,,0.00,812,Wunderground v.1.15,2013-07-20 16:25:00,
2013-07-20 11:26:00,82.8,63.9,29.88,NW,314,2.0,4.0,53,0.00,,,0.00,814,Wunderground v.1.15,2013-07-20 16:26:00,
2013-07-20 11:28:00,83.0,62.4,29.88,NE,46,1.0,6.0,50,0.00,,,0.00,821,Wunderground v.1.15,2013-07-20 16:28:00,
2013-07-20 11:31:00,83.0,63.0,29.88,NE,41,2.0,3.0,51,0.00,,,0.00,823,Wunderground v.1.15,2013-07-20 16:31:00,
2013-07-20 11:32:00,83.3,63.8,29.88,NE,47,1.0,3.0,52,0.00,,,0.00,824,Wunderground v.1.15,2013-07-20 16:32:00,
2013-07-20 11:33:00,83.5,64.0,29.88,NNE,23,0.0,4.0,52,0.00,,,0.00,828,Wunderground v.1.15,2013-07-20 16:33:00,
2013-07-20 11:34:00,83.4,62.8,29.88,ENE,59,2.0,4.0,50,0.00,,,0.00,831,Wunderground v.1.15,2013-07-20 16:34:00,
2013-07-20 11:37:00,83.0,63.0,29.88,NE,46,2.0,4.0,51,0.00,,,0.00,831,Wunderground v.1.15,2013-07-20 16:37:00,
2013-07-20 11:39:00,83.0,63.6,29.88,East,84,5.0,5.0,52,0.00,,,0.00,837,Wunderground v.1.15,2013-07-20 16:39:00,
2013-07-20 11:40:00,83.0,64.6,29.87,North,355,3.0,3.0,54,0.00,,,0.00,840,Wunderground v.1.15,2013-07-20 16:40:00,
2013-07-20 11:41:00,83.0,63.0,29.87,North,355,0.0,3.0,51,0.00,,,0.00,840,Wunderground v.1.15,2013-07-20 16:41:00,
2013-07-20 11:43:00,83.5,64.0,29.87,North,5,1.0,3.0,52,0.00,,,0.00,842,Wunderground v.1.15,2013-07-20 16:43:00,
2013-07-20 11:44:00,83.7,63.7,29.88,NE,35,1.0,3.0,51,0.00,,,0.00,847,Wunderground v.1.15,2013-07-20 16:44:00,
2013-07-20 11:45:00,83.5,63.5,29.88,East,100,0.0,3.0,51,0.00,,,0.00,849,Wunderground v.1.15,2013-07-20 16:45:00,
2013-07-20 11:47:00,83.7,64.8,29.88,NNE,26,1.0,3.0,53,0.00,,,0.00,849,Wunderground v.1.15,2013-07-20 16:47:00,
2013-07-20 11:48:00,84.0,63.9,29.88,NNE,33,1.0,3.0,51,0.00,,,0.00,851,Wunderground v.1.15,2013-07-20 16:48:00,
2013-07-20 11:49:00,84.1,64.6,29.88,NNE,18,3.0,3.0,52,0.00,,,0.00,853,Wunderground v.1.15,2013-07-20 16:49:00,
2013-07-20 11:50:00,84.5,64.9,29.88,North,9,2.0,4.0,52,0.00,,,0.00,854,Wunderground v.1.15,2013-07-20 16:50:00,
2013-07-20 11:52:00,84.4,63.7,29.88,NNW,337,0.0,4.0,50,0.00,,,0.00,856,Wunderground v.1.15,2013-07-20 16:52:00,
2013-07-20 11:54:00,84.3,64.8,29.88,WNW,300,2.0,4.0,52,0.00,,,0.00,853,Wunderground v.1.15,2013-07-20 16:54:00,
2013-07-20 11:55:00,84.1,65.1,29.87,WNW,284,5.0,5.0,53,0.00,,,0.00,856,Wunderground v.1.15,2013-07-20 16:55:00,
2013-07-20 11:56:00,83.9,64.4,29.88,WNW,284,4.0,6.0,52,0.00,,,0.00,860,Wunderground v.1.15,2013-07-20 16:56:00,
2013-07-20 11:58:00,83.8,65.9,29.88,NNE,18,0.0,6.0,55,0.00,,,0.00,856,Wunderground v.1.15,2013-07-20 16:58:00,
2013-07-20 12:01:00,84.2,64.1,29.88,NE,52,3.0,4.0,51,0.00,,,0.00,863,Wunderground v.1.15,2013-07-20 17:01:00,
2013-07-20 12:02:00,84.2,63.5,29.87,North,5,2.0,4.0,50,0.00,,,0.00,868,Wunderground v.1.15,2013-07-20 17:02:00,
2013-07-20 12:03:00,84.1,63.5,29.87,North,5,0.0,4.0,50,0.00,,,0.00,868,Wunderground v.1.15,2013-07-20 17:03:00,
2013-07-20 12:04:00,83.9,63.8,29.87,NE,38,0.0,4.0,51,0.00,,,0.00,872,Wunderground v.1.15,2013-07-20 17:04:00,
2013-07-20 12:07:00,83.2,61.5,29.87,North,360,2.0,5.0,48,0.00,,,0.00,877,Wunderground v.1.15,2013-07-20 17:07:00,
2013-07-20 12:09:00,83.2,62.1,29.87,North,360,3.0,5.0,49,0.00,,,0.00,877,Wunderground v.1.15,2013-07-20 17:09:00,
2013-07-20 12:10:00,83.4,62.2,29.87,NW,309,3.0,3.0,49,0.00,,,0.00,879,Wunderground v.1.15,2013-07-20 17:10:00,
2013-07-20 12:14:00,83.9,62.1,29.87,NE,42,2.0,3.0,48,0.00,,,0.00,881,Wunderground v.1.15,2013-07-20 17:14:00,
2013-07-20 12:15:00,84.0,62.2,29.87,North,5,3.0,4.0,48,0.00,,,0.00,884,Wunderground v.1.15,2013-07-20 17:15:00,
2013-07-20 12:16:00,83.8,60.2,29.87,North,360,2.0,4.0,45,0.00,,,0.00,884,Wunderground v.1.15,2013-07-20 17:16:00,
2013-07-20 12:20:00,84.2,60.6,29.87,North,5,2.0,2.0,45,0.00,,,0.00,891,Wunderground v.1.15,2013-07-20 17:20:00,
2013-07-20 12:21:00,84.1,60.5,29.87,North,5,0.0,3.0,45,0.00,,,0.00,891,Wunderground v.1.15,2013-07-20 17:21:00,
2013-07-20 12:22:00,84.0,60.4,29.87,NNE,14,2.0,3.0,45,0.00,,,0.00,893,Wunderground v.1.15,2013-07-20 17:22:00,
2013-07-20 12:25:00,84.4,60.7,29.87,NE,44,3.0,3.0,45,0.00,,,0.00,893,Wunderground v.1.15,2013-07-20 17:25:00,
2013-07-20 12:26:00,84.5,60.8,29.87,ENE,65,2.0,4.0,45,0.00,,,0.00,896,Wunderground v.1.15,2013-07-20 17:26:00,
2013-07-20 12:27:00,84.1,59.8,29.87,ENE,69,0.0,4.0,44,0.00,,,0.00,896,Wunderground v.1.15,2013-07-20 17:27:00,
2013-07-20 12:30:00,83.5,61.1,29.86,ENE,72,1.0,2.0,47,0.00,,,0.00,900,Wunderground v.1.15,2013-07-20 17:30:00,
2013-07-20 12:31:00,83.5,60.5,29.86,ENE,71,1.0,2.0,46,0.00,,,0.00,902,Wunderground v.1.15,2013-07-20 17:31:00,
2013-07-20 12:32:00,83.6,60.6,29.87,ENE,57,2.0,3.0,46,0.00,,,0.00,902,Wunderground v.1.15,2013-07-20 17:32:00,
2013-07-20 12:35:00,83.8,60.8,29.86,NE,43,1.0,3.0,46,0.00,,,0.00,902,Wunderground v.1.15,2013-07-20 17:35:00,
2013-07-20 12:36:00,83.8,60.8,29.86,North,5,0.0,3.0,46,0.00,,,0.00,902,Wunderground v.1.15,2013-07-20 17:36:00,
2013-07-20 12:38:00,83.8,60.2,29.86,NNW,331,1.0,3.0,45,0.00,,,0.00,904,Wunderground v.1.15,2013-07-20 17:38:00,
2013-07-20 12:41:00,83.7,60.7,29.86,NNW,331,0.0,1.0,46,0.00,,,0.00,907,Wunderground v.1.15,2013-07-20 17:41:00,
2013-07-20 12:42:00,83.7,62.5,29.86,NNW,331,0.0,1.0,49,0.00,,,0.00,907,Wunderground v.1.15,2013-07-20 17:42:00,
2013-07-20 12:43:00,83.9,63.8,29.85,SSE,165,2.0,2.0,51,0.00,,,0.00,905,Wunderground v.1.15,2013-07-20 17:43:00,
2013-07-20 12:45:00,83.8,62.0,29.85,SSE,148,0.0,2.0,48,0.00,,,0.00,907,Wunderground v.1.15,2013-07-20 17:45:00,
2013-07-20 12:47:00,83.6,64.1,29.85,SE,132,1.0,4.0,52,0.00,,,0.00,909,Wunderground v.1.15,2013-07-20 17:47:00,
2013-07-20 12:48:00,83.5,64.6,29.85,SSE,148,2.0,4.0,53,0.00,,,0.00,909,Wunderground v.1.15,2013-07-20 17:48:00,
2013-07-20 12:50:00,83.6,63.6,29.85,East,83,3.0,3.0,51,0.00,,,0.00,914,Wunderground v.1.15,2013-07-20 17:50:00,
2013-07-20 12:52:00,83.6,62.4,29.85,NNE,25,3.0,4.0,49,0.00,,,0.00,912,Wunderground v.1.15,2013-07-20 17:52:00,
2013-07-20 12:53:00,83.7,62.5,29.85,NNE,26,2.0,4.0,49,0.00,,,0.00,912,Wunderground v.1.15,2013-07-20 17:53:00,
2013-07-20 12:56:00,84.5,63.2,29.85,ESE,123,2.0,4.0,49,0.00,,,0.00,942,Wunderground v.1.15,2013-07-20 17:56:00,
2013-07-20 12:57:00,84.6,63.3,29.85,ESE,113,3.0,4.0,49,0.00,,,0.00,979,Wunderground v.1.15,2013-07-20 17:57:00,
2013-07-20 12:58:00,84.5,62.1,29.85,East,82,1.0,4.0,47,0.00,,,0.00,984,Wunderground v.1.15,2013-07-20 17:58:00,
2013-07-20 12:59:00,84.5,62.1,29.85,East,82,0.0,4.0,47,0.00,,,0.00,984,Wunderground v.1.15,2013-07-20 17:59:00,
2013-07-20 13:01:00,84.5,63.2,29.85,SE,126,1.0,2.0,49,0.00,,,0.00,951,Wunderground v.1.15,2013-07-20 18:01:00,
2013-07-20 13:03:00,84.2,61.8,29.85,ESE,118,2.0,5.0,47,0.00,,,0.00,497,Wunderground v.1.15,2013-07-20 18:03:00,
2013-07-20 13:04:00,84.0,61.0,29.85,ESE,118,0.0,5.0,46,0.00,,,0.00,466,Wunderground v.1.15,2013-07-20 18:04:00,
2013-07-20 13:07:00,83.8,60.8,29.85,East,84,1.0,5.0,46,0.00,,,0.00,970,Wunderground v.1.15,2013-07-20 18:07:00,
2013-07-20 13:09:00,84.0,59.7,29.84,East,84,0.0,5.0,44,0.00,,,0.00,940,Wunderground v.1.15,2013-07-20 18:09:00,
2013-07-20 13:10:00,84.1,59.2,29.84,ESE,117,5.0,5.0,43,0.00,,,0.00,940,Wunderground v.1.15,2013-07-20 18:10:00,
2013-07-20 13:11:00,84.1,59.8,29.84,East,98,3.0,5.0,44,0.00,,,0.00,940,Wunderground v.1.15,2013-07-20 18:11:00,
2013-07-20 13:15:00,84.5,59.5,29.84,ESE,104,2.0,5.0,43,0.00,,,0.00,1056,Wunderground v.1.15,2013-07-20 18:15:00,
2013-07-20 13:16:00,84.4,59.5,29.84,ESE,104,0.0,5.0,43,0.00,,,0.00,1056,Wunderground v.1.15,2013-07-20 18:16:00,
2013-07-20 13:17:00,84.5,60.2,29.84,ESE,105,1.0,5.0,44,0.00,,,0.00,1023,Wunderground v.1.15,2013-07-20 18:17:00,
2013-07-20 13:19:00,84.9,63.0,29.84,ESE,117,1.0,5.0,48,0.00,,,0.00,953,Wunderground v.1.15,2013-07-20 18:19:00,
2013-07-20 13:20:00,84.9,63.0,29.84,SE,146,3.0,3.0,48,0.00,,,0.00,953,Wunderground v.1.15,2013-07-20 18:20:00,
2013-07-20 13:21:00,84.6,60.9,29.84,ESE,103,1.0,3.0,45,0.00,,,0.00,953,Wunderground v.1.15,2013-07-20 18:21:00,
2013-07-20 13:25:00,84.2,61.2,29.83,ESE,123,5.0,5.0,46,0.00,,,0.00,926,Wunderground v.1.15,2013-07-20 18:25:00,
2013-07-20 13:26:00,84.3,61.9,29.83,East,98,5.0,7.0,47,0.00,,,0.00,925,Wunderground v.1.15,2013-07-20 18:26:00,
2013-07-20 13:28:00,84.3,61.3,29.83,East,86,1.0,7.0,46,0.00,,,0.00,925,Wunderground v.1.15,2013-07-20 18:28:00,
2013-07-20 13:32:00,84.8,61.1,29.83,ESE,105,2.0,3.0,45,0.00,,,0.00,926,Wunderground v.1.15,2013-07-20 18:32:00,
2013-07-20 13:33:00,84.9,62.4,29.82,ESE,123,2.0,3.0,47,0.00,,,0.00,926,Wunderground v.1.15,2013-07-20 18:33:00,
2013-07-20 13:34:00,84.9,62.4,29.82,ESE,110,1.0,3.0,47,0.00,,,0.00,926,Wunderground v.1.15,2013-07-20 18:34:00,
2013-07-20 13:38:00,84.4,62.0,29.82,East,99,2.0,5.0,47,0.00,,,0.00,923,Wunderground v.1.15,2013-07-20 18:38:00,
2013-07-20 13:40:00,84.4,63.2,29.82,East,80,5.0,5.0,49,0.00,,,0.00,925,Wunderground v.1.15,2013-07-20 18:40:00,
2013-07-20 13:41:00,84.6,63.3,29.82,ENE,67,2.0,5.0,49,0.00,,,0.00,919,Wunderground v.1.15,2013-07-20 18:41:00,
2013-07-20 13:43:00,84.8,63.5,29.82,SSE,149,1.0,5.0,49,0.00,,,0.00,921,Wunderground v.1.15,2013-07-20 18:43:00,
2013-07-20 13:45:00,85.1,62.6,29.82,SSE,168,2.0,5.0,47,0.00,,,0.00,921,Wunderground v.1.15,2013-07-20 18:45:00,
2013-07-20 13:47:00,85.0,61.3,29.81,ESE,102,5.0,6.0,45,0.00,,,0.00,925,Wunderground v.1.15,2013-07-20 18:47:00,
2013-07-20 13:48:00,85.0,61.3,29.81,ESE,106,4.0,7.0,45,0.00,,,0.00,925,Wunderground v.1.15,2013-07-20 18:48:00,
2013-07-20 13:53:00,85.6,62.4,29.82,East,97,6.0,6.0,46,0.00,,,0.00,926,Wunderground v.1.15,2013-07-20 18:53:00,
2013-07-20 13:54:00,85.5,61.1,29.82,East,80,1.0,6.0,44,0.00,,,0.00,926,Wunderground v.1.15,2013-07-20 18:54:00,
2013-07-20 13:58:00,84.9,57.9,29.82,East,94,3.0,7.0,40,0.00,,,0.00,933,Wunderground v.1.15,2013-07-20 18:58:00,
2013-07-20 13:59:00,84.9,59.9,29.82,East,96,1.0,7.0,43,0.00,,,0.00,937,Wunderground v.1.15,2013-07-20 18:59:00,
2013-07-20 14:03:00,84.7,59.7,29.82,ENE,73,1.0,3.0,43,0.00,,,0.00,735,Wunderground v.1.15,2013-07-20 19:03:00,
2013-07-20 14:04:00,84.8,60.5,29.82,ESE,118,2.0,3.0,44,0.00,,,0.00,735,Wunderground v.1.15,2013-07-20 19:04:00,
2013-07-20 14:05:00,84.8,59.8,29.82,East,91,1.0,3.0,43,0.00,,,0.00,951,Wunderground v.1.15,2013-07-20 19:05:00,
2013-07-20 14:08:00,84.9,59.2,29.82,East,93,0.0,3.0,42,0.00,,,0.00,991,Wunderground v.1.15,2013-07-20 19:08:00,
2013-07-20 14:10:00,85.3,58.2,29.83,ENE,78,1.0,1.0,40,0.00,,,0.00,940,Wunderground v.1.15,2013-07-20 19:10:00,
2013-07-20 14:11:00,85.4,57.6,29.83,ENE,77,0.0,1.0,39,0.00,,,0.00,940,Wunderground v.1.15,2013-07-20 19:11:00,
2013-07-20 14:14:00,85.4,59.0,29.83,NE,40,0.0,1.0,41,0.00,,,0.00,362,Wunderground v.1.15,2013-07-20 19:14:00,
2013-07-20 14:15:00,85.2,58.8,29.83,NE,40,0.0,1.0,41,0.00,,,0.00,452,Wunderground v.1.15,2013-07-20 19:15:00,
2013-07-20 14:16:00,85.0,58.0,29.83,ENE,59,3.0,3.0,40,0.00,,,0.00,464,Wunderground v.1.15,2013-07-20 19:16:00,
2013-07-20 14:19:00,84.9,59.9,29.83,ENE,74,0.0,3.0,43,0.00,,,0.00,612,Wunderground v.1.15,2013-07-20 19:19:00,
2013-07-20 14:21:00,85.0,60.6,29.83,East,83,1.0,2.0,44,0.00,,,0.00,831,Wunderground v.1.15,2013-07-20 19:21:00,
2013-07-20 14:22:00,85.2,60.2,29.83,East,84,1.0,2.0,43,0.00,,,0.00,831,Wunderground v.1.15,2013-07-20 19:22:00,
2013-07-20 14:24:00,85.3,60.9,29.83,East,79,0.0,2.0,44,0.00,,,0.00,786,Wunderground v.1.15,2013-07-20 19:24:00,
2013-07-20 14:25:00,85.3,60.9,29.83,East,79,0.0,2.0,44,0.00,,,0.00,786,Wunderground v.1.15,2013-07-20 19:25:00,
2013-07-20 14:29:00,86.4,59.9,29.83,NE,46,0.0,3.0,41,0.00,,,0.00,821,Wunderground v.1.15,2013-07-20 19:29:00,
2013-07-20 14:32:00,86.3,61.2,29.83,NE,56,0.0,1.0,43,0.00,,,0.00,650,Wunderground v.1.15,2013-07-20 19:32:00,
2013-07-20 14:33:00,86.3,58.4,29.83,ENE,57,0.0,1.0,39,0.00,,,0.00,809,Wunderground v.1.15,2013-07-20 19:33:00,
2013-07-20 14:34:00,86.3,60.5,29.83,ENE,69,0.0,1.0,42,0.00,,,0.00,868,Wunderground v.1.15,2013-07-20 19:34:00,
2013-07-20 14:38:00,85.9,60.8,29.83,ESE,109,0.0,7.0,43,0.00,,,0.00,888,Wunderground v.1.15,2013-07-20 19:38:00,
2013-07-20 14:39:00,86.0,60.9,29.83,ESE,109,0.0,7.0,43,0.00,,,0.00,893,Wunderground v.1.15,2013-07-20 19:39:00,
2013-07-20 14:44:00,85.9,60.1,29.82,ENE,69,1.0,5.0,42,0.00,,,0.00,898,Wunderground v.1.15,2013-07-20 19:44:00,
2013-07-20 14:45:00,86.3,61.2,29.82,NE,48,3.0,5.0,43,0.00,,,0.00,898,Wunderground v.1.15,2013-07-20 19:45:00,
2013-07-20 14:46:00,86.6,60.1,29.82,ENE,62,2.0,5.0,41,0.00,,,0.00,923,Wunderground v.1.15,2013-07-20 19:46:00,
2013-07-20 14:50:00,87.1,59.8,29.82,East,81,2.0,2.0,40,0.00,,,0.00,898,Wunderground v.1.15,2013-07-20 19:50:00,
2013-07-20 14:51:00,87.3,60.7,29.82,ESE,107,2.0,5.0,41,0.00,,,0.00,898,Wunderground v.1.15,2013-07-20 19:51:00,
2013-07-20 14:53:00,87.0,59.8,29.83,ENE,77,1.0,6.0,40,0.00,,,0.00,889,Wunderground v.1.15,2013-07-20 19:53:00,
2013-07-20 14:54:00,86.9,60.4,29.83,ENE,71,1.0,6.0,41,0.00,,,0.00,884,Wunderground v.1.15,2013-07-20 19:54:00,
2013-07-20 14:55:00,87.0,61.1,29.83,ESE,112,3.0,6.0,42,0.00,,,0.00,882,Wunderground v.1.15,2013-07-20 19:55:00,
2013-07-20 14:56:00,86.9,59.7,29.83,ESE,105,2.0,6.0,40,0.00,,,0.00,882,Wunderground v.1.15,2013-07-20 19:56:00,
2013-07-20 14:59:00,86.6,60.1,29.83,SE,136,2.0,6.0,41,0.00,,,0.00,875,Wunderground v.1.15,2013-07-20 19:59:00,
2013-07-20 15:00:00,86.4,59.2,29.83,SE,135,1.0,2.0,40,0.00,,,0.00,875,Wunderground v.1.15,2013-07-20 20:00:00,
2013-07-20 15:01:00,86.4,59.2,29.83,SE,138,1.0,2.0,40,0.00,,,0.00,879,Wunderground v.1.15,2013-07-20 20:01:00,
2013-07-20 15:04:00,86.8,61.0,29.83,SE,138,0.0,2.0,42,0.00,,,0.00,837,Wunderground v.1.15,2013-07-20 20:04:00,
2013-07-20 15:05:00,86.9,61.7,29.83,SSE,158,0.0,2.0,43,0.00,,,0.00,780,Wunderground v.1.15,2013-07-20 20:05:00,
2013-07-20 15:06:00,86.8,60.3,29.82,SSE,158,0.0,2.0,41,0.00,,,0.00,780,Wunderground v.1.15,2013-07-20 20:06:00,
2013-07-20 15:08:00,87.0,61.1,29.82,South,185,0.0,2.0,42,0.00,,,0.00,861,Wunderground v.1.15,2013-07-20 20:08:00,
2013-07-20 15:12:00,87.2,63.3,29.82,SSE,154,0.0,1.0,45,0.00,,,0.00,851,Wunderground v.1.15,2013-07-20 20:12:00,
2013-07-20 15:13:00,87.8,63.2,29.82,SE,133,3.0,3.0,44,0.00,,,0.00,847,Wunderground v.1.15,2013-07-20 20:13:00,
2013-07-20 15:14:00,87.8,63.2,29.82,SE,134,0.0,3.0,44,0.00,,,0.00,847,Wunderground v.1.15,2013-07-20 20:14:00,
2013-07-20 15:18:00,87.2,63.3,29.82,SSW,194,0.0,3.0,45,0.00,,,0.00,849,Wunderground v.1.15,2013-07-20 20:18:00,
2013-07-20 15:21:00,87.5,62.2,29.82,SE,144,0.0,2.0,43,0.00,,,0.00,854,Wunderground v.1.15,2013-07-20 20:21:00,
2013-07-20 15:23:00,87.7,62.4,29.81,East,93,2.0,2.0,43,0.00,,,0.00,858,Wunderground v.1.15,2013-07-20 20:23:00,
2013-07-20 15:29:00,88.4,62.4,29.82,South,186,2.0,5.0,42,0.00,,,0.00,875,Wunderground v.1.15,2013-07-20 20:29:00,
2013-07-20 15:30:00,88.5,63.8,29.82,South,185,1.0,1.0,44,0.00,,,0.00,874,Wunderground v.1.15,2013-07-20 20:30:00,
2013-07-20 15:31:00,88.5,61.8,29.82,South,185,0.0,1.0,41,0.00,,,0.00,874,Wunderground v.1.15,2013-07-20 20:31:00,
2013-07-20 15:35:00,88.1,62.1,29.82,SSE,166,1.0,4.0,42,0.00,,,0.00,856,Wunderground v.1.15,2013-07-20 20:35:00,
2013-07-20 15:36:00,88.0,60.7,29.82,South,184,0.0,4.0,40,0.00,,,0.00,853,Wunderground v.1.15,2013-07-20 20:36:00,
2013-07-20 15:37:00,88.1,62.1,29.81,SE,126,4.0,4.0,42,0.00,,,0.00,847,Wunderground v.1.15,2013-07-20 20:37:00,
2013-07-20 15:41:00,87.8,59.8,29.81,South,184,0.0,2.0,39,0.00,,,0.00,842,Wunderground v.1.15,2013-07-20 20:41:00,
2013-07-20 15:42:00,87.8,61.2,29.81,SE,145,1.0,2.0,41,0.00,,,0.00,833,Wunderground v.1.15,2013-07-20 20:42:00,
2013-07-20 15:43:00,87.7,61.1,29.81,East,98,3.0,3.0,41,0.00,,,0.00,846,Wunderground v.1.15,2013-07-20 20:43:00,
2013-07-20 15:44:00,88.0,61.3,29.81,East,91,6.0,8.0,41,0.00,,,0.00,872,Wunderground v.1.15,2013-07-20 20:44:00,
2013-07-20 15:47:00,87.8,59.8,29.82,East,95,1.0,8.0,39,0.00,,,0.00,807,Wunderground v.1.15,2013-07-20 20:47:00,
2013-07-20 15:48:00,87.7,58.2,29.82,East,84,1.0,8.0,37,0.00,,,0.00,436,Wunderground v.1.15,2013-07-20 20:48:00,
2013-07-20 15:49:00,87.7,59.7,29.82,ENE,76,2.0,8.0,39,0.00,,,0.00,369,Wunderground v.1.15,2013-07-20 20:49:00,
2013-07-20 15:52:00,87.5,57.3,29.82,ENE,74,1.0,3.0,36,0.00,,,0.00,392,Wunderground v.1.15,2013-07-20 20:52:00,
2013-07-20 15:55:00,87.6,57.3,29.82,ENE,65,4.0,5.0,36,0.00,,,0.00,984,Wunderground v.1.15,2013-07-20 20:55:00,
2013-07-20 15:57:00,87.7,55.9,29.82,ENE,65,0.0,5.0,34,0.00,,,0.00,951,Wunderground v.1.15,2013-07-20 20:57:00,
2013-07-20 16:00:00,88.0,56.9,29.82,East,81,2.0,2.0,35,0.00,,,0.00,947,Wunderground v.1.15,2013-07-20 21:00:00,
2013-07-20 16:01:00,88.2,58.6,29.82,East,94,1.0,3.0,37,0.00,,,0.00,958,Wunderground v.1.15,2013-07-20 21:01:00,
2013-07-20 16:03:00,88.6,58.2,29.81,East,82,0.0,3.0,36,0.00,,,0.00,953,Wunderground v.1.15,2013-07-20 21:03:00,
2013-07-20 16:05:00,89.0,57.0,29.81,NE,53,0.0,3.0,34,0.00,,,0.00,942,Wunderground v.1.15,2013-07-20 21:05:00,
2013-07-20 16:06:00,89.1,57.1,29.81,NE,51,2.0,3.0,34,0.00,,,0.00,942,Wunderground v.1.15,2013-07-20 21:06:00,
2013-07-20 16:08:00,89.0,57.8,29.81,NE,50,1.0,3.0,35,0.00,,,0.00,916,Wunderground v.1.15,2013-07-20 21:08:00,
2013-07-20 16:09:00,89.0,57.8,29.81,NE,45,1.0,3.0,35,0.00,,,0.00,889,Wunderground v.1.15,2013-07-20 21:09:00,
2013-07-20 16:11:00,89.3,57.3,29.81,NE,36,2.0,2.0,34,0.00,,,0.00,835,Wunderground v.1.15,2013-07-20 21:11:00,
2013-07-20 16:13:00,89.3,58.1,29.81,North,9,2.0,2.0,35,0.00,,,0.00,807,Wunderground v.1.15,2013-07-20 21:13:00,
2013-07-20 16:14:00,89.3,57.3,29.81,North,9,2.0,3.0,34,0.00,,,0.00,788,Wunderground v.1.15,2013-07-20 21:14:00,
2013-07-20 16:16:00,89.3,56.4,29.81,WNW,289,2.0,3.0,33,0.00,,,0.00,775,Wunderground v.1.15,2013-07-20 21:16:00,
2013-07-20 16:17:00,89.2,58.0,29.81,West,271,0.0,3.0,35,0.00,,,0.00,775,Wunderground v.1.15,2013-07-20 21:17:00,
2013-07-20 16:22:00,89.3,60.4,29.81,NNW,336,1.0,1.0,38,0.00,,,0.00,788,Wunderground v.1.15,2013-07-20 21:22:00,
2013-07-20 16:23:00,89.4,59.7,29.81,NNW,341,0.0,3.0,37,0.00,,,0.00,362,Wunderground v.1.15,2013-07-20 21:23:00,
2013-07-20 16:28:00,87.5,60.9,29.81,ENE,78,1.0,3.0,41,0.00,,,0.00,401,Wunderground v.1.15,2013-07-20 21:28:00,
2013-07-20 16:30:00,87.4,60.1,29.81,ENE,74,0.0,1.0,40,0.00,,,0.00,294,Wunderground v.1.15,2013-07-20 21:30:00,
2013-07-20 16:31:00,87.4,60.1,29.81,ENE,74,0.0,1.0,40,0.00,,,0.00,269,Wunderground v.1.15,2013-07-20 21:31:00,
2013-07-20 16:32:00,87.2,60.6,29.81,NE,48,1.0,1.0,41,0.00,,,0.00,250,Wunderground v.1.15,2013-07-20 21:32:00,
2013-07-20 16:35:00,86.6,59.4,29.81,NE,45,1.0,2.0,40,0.00,,,0.00,218,Wunderground v.1.15,2013-07-20 21:35:00,
2013-07-20 16:37:00,86.5,60.0,29.81,NE,44,2.0,2.0,41,0.00,,,0.00,206,Wunderground v.1.15,2013-07-20 21:37:00,
2013-07-20 16:38:00,86.4,59.9,29.81,NE,44,1.0,2.0,41,0.00,,,0.00,202,Wunderground v.1.15,2013-07-20 21:38:00,
2013-07-20 16:41:00,86.1,60.3,29.80,NE,34,1.0,2.0,42,0.00,,,0.00,199,Wunderground v.1.15,2013-07-20 21:41:00,
2013-07-20 16:42:00,86.1,60.3,29.80,NE,34,1.0,2.0,42,0.00,,,0.00,199,Wunderground v.1.15,2013-07-20 21:42:00,
2013-07-20 16:43:00,86.0,60.2,29.80,NE,34,2.0,2.0,42,0.00,,,0.00,202,Wunderground v.1.15,2013-07-20 21:43:00,
2013-07-20 16:44:00,85.9,60.1,29.80,NE,34,1.0,2.0,42,0.00,,,0.00,206,Wunderground v.1.15,2013-07-20 21:44:00,
2013-07-20 16:47:00,85.6,63.7,29.80,NE,34,0.0,2.0,48,0.00,,,0.00,204,Wunderground v.1.15,2013-07-20 21:47:00,
2013-07-20 16:48:00,85.4,62.3,29.79,NE,34,0.0,2.0,46,0.00,,,0.00,195,Wunderground v.1.15,2013-07-20 21:48:00,
2013-07-20 16:49:00,85.3,60.9,29.79,NE,50,0.0,2.0,44,0.00,,,0.00,190,Wunderground v.1.15,2013-07-20 21:49:00,
2013-07-20 16:52:00,85.4,61.0,29.80,NE,50,0.0,1.0,44,0.00,,,0.00,225,Wunderground v.1.15,2013-07-20 21:52:00,
2013-07-20 16:53:00,85.3,60.9,29.79,NE,50,0.0,1.0,44,0.00,,,0.00,225,Wunderground v.1.15,2013-07-20 21:53:00,
2013-07-20 16:57:00,85.1,62.6,29.80,NE,49,1.0,1.0,47,0.00,,,0.00,199,Wunderground v.1.15,2013-07-20 21:57:00,
2013-07-20 16:58:00,85.1,63.2,29.80,NE,49,0.0,1.0,48,0.00,,,0.00,197,Wunderground v.1.15,2013-07-20 21:58:00,
2013-07-20 17:01:00,85.2,61.5,29.80,NE,55,0.0,0.0,45,0.00,,,0.00,221,Wunderground v.1.15,2013-07-20 22:01:00,
2013-07-20 17:02:00,85.2,61.5,29.79,NE,55,0.0,0.0,45,0.00,,,0.00,221,Wunderground v.1.15,2013-07-20 22:02:00,
2013-07-20 17:04:00,85.2,62.1,29.79,NE,53,0.0,0.0,46,0.00,,,0.00,250,Wunderground v.1.15,2013-07-20 22:04:00,
2013-07-20 17:07:00,85.5,61.7,29.79,West,267,3.0,3.0,45,0.00,,,0.00,248,Wunderground v.1.15,2013-07-20 22:07:00,
2013-07-20 17:09:00,85.6,62.4,29.80,WSW,240,3.0,3.0,46,0.00,,,0.00,246,Wunderground v.1.15,2013-07-20 22:09:00,
2013-07-20 17:10:00,85.5,61.7,29.80,SSW,212,2.0,3.0,45,0.00,,,0.00,257,Wunderground v.1.15,2013-07-20 22:10:00,
2013-07-20 17:12:00,85.4,61.6,29.79,SW,215,2.0,3.0,45,0.00,,,0.00,257,Wunderground v.1.15,2013-07-20 22:12:00,
2013-07-20 17:15:00,85.1,62.6,29.79,SSW,209,4.0,5.0,47,0.00,,,0.00,276,Wunderground v.1.15,2013-07-20 22:15:00,
2013-07-20 17:17:00,85.1,62.0,29.79,SSW,199,1.0,5.0,46,0.00,,,0.00,308,Wunderground v.1.15,2013-07-20 22:17:00,
2013-07-20 17:19:00,85.1,62.6,29.79,SSW,207,2.0,5.0,47,0.00,,,0.00,396,Wunderground v.1.15,2013-07-20 22:19:00,
2013-07-20 17:20:00,85.3,62.8,29.79,SW,219,2.0,2.0,47,0.00,,,0.00,396,Wunderground v.1.15,2013-07-20 22:20:00,
2013-07-20 17:23:00,85.6,63.1,29.79,SW,228,3.0,3.0,47,0.00,,,0.00,403,Wunderground v.1.15,2013-07-20 22:23:00,
2013-07-20 17:25:00,85.6,64.2,29.79,SW,223,2.0,4.0,49,0.00,,,0.00,441,Wunderground v.1.15,2013-07-20 22:25:00,
2013-07-20 17:26:00,85.8,63.8,29.79,SSW,213,4.0,4.0,48,0.00,,,0.00,441,Wunderground v.1.15,2013-07-20 22:26:00,
2013-07-20 17:30:00,86.8,62.3,29.78,SW,215,0.0,2.0,44,0.00,,,0.00,526,Wunderground v.1.15,2013-07-20 22:30:00,
2013-07-20 17:31:00,86.9,62.4,29.78,SW,228,2.0,2.0,44,0.00,,,0.00,526,Wunderground v.1.15,2013-07-20 22:31:00,
2013-07-20 17:32:00,87.0,61.1,29.78,SSW,205,1.0,3.0,42,0.00,,,0.00,691,Wunderground v.1.15,2013-07-20 22:32:00,
2013-07-20 17:35:00,87.4,60.8,29.78,SSW,192,1.0,4.0,41,0.00,,,0.00,617,Wunderground v.1.15,2013-07-20 22:35:00,
2013-07-20 17:37:00,87.5,60.9,29.78,SW,220,3.0,4.0,41,0.00,,,0.00,613,Wunderground v.1.15,2013-07-20 22:37:00,
2013-07-20 17:38:00,87.5,61.6,29.78,WSW,242,3.0,4.0,42,0.00,,,0.00,635,Wunderground v.1.15,2013-07-20 22:38:00,
2013-07-20 17:40:00,87.6,61.0,29.78,SW,228,2.0,2.0,41,0.00,,,0.00,629,Wunderground v.1.15,2013-07-20 22:40:00,
2013-07-20 17:43:00,87.6,61.7,29.78,SSW,211,0.0,2.0,42,0.00,,,0.00,617,Wunderground v.1.15,2013-07-20 22:43:00,
2013-07-20 17:44:00,87.7,61.8,29.78,SW,224,1.0,2.0,42,0.00,,,0.00,617,Wunderground v.1.15,2013-07-20 22:44:00,
2013-07-20 17:45:00,88.0,61.3,29.78,WSW,241,4.0,5.0,41,0.00,,,0.00,613,Wunderground v.1.15,2013-07-20 22:45:00,
2013-07-20 17:46:00,87.9,61.3,29.78,SSW,201,3.0,5.0,41,0.00,,,0.00,610,Wunderground v.1.15,2013-07-20 22:46:00,
2013-07-20 17:50:00,87.9,59.8,29.77,SSW,213,1.0,2.0,39,0.00,,,0.00,480,Wunderground v.1.15,2013-07-20 22:50:00,
2013-07-20 17:51:00,87.8,60.5,29.77,SSW,213,0.0,2.0,40,0.00,,,0.00,480,Wunderground v.1.15,2013-07-20 22:51:00,
2013-07-20 17:56:00,87.5,61.6,29.77,South,176,0.0,3.0,42,0.00,,,0.00,540,Wunderground v.1.15,2013-07-20 22:56:00,
2013-07-20 17:57:00,87.4,60.1,29.77,South,174,0.0,3.0,40,0.00,,,0.00,564,Wunderground v.1.15,2013-07-20 22:57:00,
2013-07-20 17:59:00,87.4,61.5,29.77,SW,218,2.0,4.0,42,0.00,,,0.00,533,Wunderground v.1.15,2013-07-20 22:59:00,
2013-07-20 18:02:00,87.2,60.6,29.77,SSW,195,2.0,2.0,41,0.00,,,0.00,413,Wunderground v.1.15,2013-07-20 23:02:00,
2013-07-20 18:04:00,87.1,61.2,29.77,SSW,202,3.0,5.0,42,0.00,,,0.00,563,Wunderground v.1.15,2013-07-20 23:04:00,
2013-07-20 18:07:00,86.9,62.4,29.77,SSW,207,2.0,5.0,44,0.00,,,0.00,564,Wunderground v.1.15,2013-07-20 23:07:00,
2013-07-20 18:08:00,86.8,62.3,29.77,South,191,0.0,5.0,44,0.00,,,0.00,401,Wunderground v.1.15,2013-07-20 23:08:00,
2013-07-20 18:09:00,86.8,62.3,29.77,SSW,194,0.0,5.0,44,0.00,,,0.00,401,Wunderground v.1.15,2013-07-20 23:09:00,
2013-07-20 18:11:00,86.6,61.4,29.77,South,184,2.0,5.0,43,0.00,,,0.00,272,Wunderground v.1.15,2013-07-20 23:11:00,
2013-07-20 18:14:00,86.2,60.4,29.76,South,186,0.0,5.0,42,0.00,,,0.00,248,Wunderground v.1.15,2013-07-20 23:14:00,
2013-07-20 18:15:00,86.1,60.3,29.76,South,180,2.0,5.0,42,0.00,,,0.00,193,Wunderground v.1.15,2013-07-20 23:15:00,
2013-07-20 18:17:00,85.7,60.0,29.76,South,173,1.0,5.0,42,0.00,,,0.00,167,Wunderground v.1.15,2013-07-20 23:17:00,
2013-07-20 18:20:00,85.3,60.9,29.76,South,172,0.0,1.0,44,0.00,,,0.00,151,Wunderground v.1.15,2013-07-20 23:20:00,
2013-07-20 18:22:00,85.1,60.7,29.76,SSW,206,1.0,3.0,44,0.00,,,0.00,162,Wunderground v.1.15,2013-07-20 23:22:00,
2013-07-20 18:26:00,84.9,60.6,29.76,SSW,202,0.0,3.0,44,0.00,,,0.00,171,Wunderground v.1.15,2013-07-20 23:26:00,
2013-07-20 18:27:00,84.8,61.1,29.77,SSW,202,0.0,3.0,45,0.00,,,0.00,178,Wunderground v.1.15,2013-07-20 23:27:00,
2013-07-20 18:29:00,84.8,60.5,29.77,SSW,202,1.0,3.0,44,0.00,,,0.00,188,Wunderground v.1.15,2013-07-20 23:29:00,
2013-07-20 18:31:00,85.2,60.2,29.77,SSW,202,0.0,1.0,43,0.00,,,0.00,452,Wunderground v.1.15,2013-07-20 23:31:00,
2013-07-20 18:35:00,86.1,61.0,29.77,South,190,0.0,1.0,43,0.00,,,0.00,431,Wunderground v.1.15,2013-07-20 23:35:00,
2013-07-20 18:36:00,86.2,61.1,29.77,SW,217,1.0,3.0,43,0.00,,,0.00,410,Wunderground v.1.15,2013-07-20 23:36:00,
2013-07-20 18:37:00,86.3,61.2,29.77,SW,218,1.0,3.0,43,0.00,,,0.00,397,Wunderground v.1.15,2013-07-20 23:37:00,
2013-07-20 18:41:00,86.6,61.4,29.77,SW,215,0.0,0.0,43,0.00,,,0.00,355,Wunderground v.1.15,2013-07-20 23:41:00,
2013-07-20 18:43:00,86.7,61.5,29.78,SSW,211,3.0,3.0,43,0.00,,,0.00,343,Wunderground v.1.15,2013-07-20 23:43:00,
2013-07-20 18:44:00,86.6,60.8,29.78,SW,218,2.0,3.0,42,0.00,,,0.00,316,Wunderground v.1.15,2013-07-20 23:44:00,
2013-07-20 18:46:00,86.3,62.5,29.78,SW,221,0.0,3.0,45,0.00,,,0.00,290,Wunderground v.1.15,2013-07-20 23:46:00,
2013-07-20 18:48:00,86.0,62.2,29.78,SW,221,0.0,3.0,45,0.00,,,0.00,220,Wunderground v.1.15,2013-07-20 23:48:00,
2013-07-20 18:49:00,85.8,60.7,29.78,SW,221,0.0,3.0,43,0.00,,,0.00,274,Wunderground v.1.15,2013-07-20 23:49:00,
2013-07-20 18:51:00,85.7,61.3,29.77,SW,221,0.0,0.0,44,0.00,,,0.00,288,Wunderground v.1.15,2013-07-20 23:51:00,
2013-07-20 18:53:00,85.7,60.6,29.77,SW,221,0.0,0.0,43,0.00,,,0.00,288,Wunderground v.1.15,2013-07-20 23:53:00,
2013-07-20 18:55:00,85.6,59.9,29.77,SW,221,0.0,0.0,42,0.00,,,0.00,271,Wunderground v.1.15,2013-07-20 23:55:00,
2013-07-20 18:56:00,85.6,60.5,29.77,SW,221,0.0,0.0,43,0.00,,,0.00,271,Wunderground v.1.15,2013-07-20 23:56:00,
2013-07-20 18:57:00,85.6,59.9,29.77,NW,307,0.0,2.0,42,0.00,,,0.00,267,Wunderground v.1.15,2013-07-20 23:57:00,
2013-07-20 18:59:00,85.7,61.3,29.77,NNW,337,0.0,2.0,44,0.00,,,0.00,267,Wunderground v.1.15,2013-07-20 23:59:00,
2013-07-20 19:01:00,85.9,61.5,29.77,NE,40,0.0,2.0,44,0.00,,,0.00,257,Wunderground v.1.15,2013-07-21 00:01:00,
2013-07-20 19:04:00,85.9,60.1,29.77,NNE,18,2.0,2.0,42,0.00,,,0.00,176,Wunderground v.1.15,2013-07-21 00:04:00,
2013-07-20 19:05:00,85.9,60.1,29.77,NNE,18,1.0,2.0,42,0.00,,,0.00,176,Wunderground v.1.15,2013-07-21 00:05:00,
2013-07-20 19:07:00,85.8,62.0,29.77,NNE,20,0.0,3.0,45,0.00,,,0.00,232,Wunderground v.1.15,2013-07-21 00:07:00,
2013-07-20 19:09:00,85.7,61.3,29.77,NNE,17,1.0,3.0,44,0.00,,,0.00,223,Wunderground v.1.15,2013-07-21 00:09:00,
2013-07-20 19:10:00,85.7,60.0,29.77,NNE,13,1.0,2.0,42,0.00,,,0.00,220,Wunderground v.1.15,2013-07-21 00:10:00,
2013-07-20 19:12:00,85.8,60.1,29.77,North,9,1.0,3.0,42,0.00,,,0.00,209,Wunderground v.1.15,2013-07-21 00:12:00,
2013-07-20 19:13:00,85.8,59.4,29.77,North,9,2.0,3.0,41,0.00,,,0.00,209,Wunderground v.1.15,2013-07-21 00:13:00,
2013-07-20 19:14:00,85.9,59.5,29.77,North,5,1.0,3.0,41,0.00,,,0.00,202,Wunderground v.1.15,2013-07-21 00:14:00,
2013-07-20 19:18:00,85.9,60.1,29.77,North,5,0.0,3.0,42,0.00,,,0.00,192,Wunderground v.1.15,2013-07-21 00:18:00,
2013-07-20 19:19:00,85.8,61.4,29.77,North,5,2.0,3.0,44,0.00,,,0.00,185,Wunderground v.1.15,2013-07-21 00:19:00,
2013-07-20 19:20:00,85.8,62.0,29.78,North,5,2.0,2.0,45,0.00,,,0.00,181,Wunderground v.1.15,2013-07-21 00:20:00,
2013-07-20 19:25:00,85.6,61.2,29.78,North,9,2.0,3.0,44,0.00,,,0.00,167,Wunderground v.1.15,2013-07-21 00:25:00,
2013-07-20 19:26:00,85.6,62.4,29.78,North,10,2.0,3.0,46,0.00,,,0.00,165,Wunderground v.1.15,2013-07-21 00:26:00,
2013-07-20 19:30:00,85.4,61.0,29.78,North,9,1.0,2.0,44,0.00,,,0.00,153,Wunderground v.1.15,2013-07-21 00:30:00,
2013-07-20 19:31:00,85.4,61.0,29.78,North,9,0.0,2.0,44,0.00,,,0.00,148,Wunderground v.1.15,2013-07-21 00:31:00,
2013-07-20 19:32:00,85.3,62.2,29.78,North,9,0.0,2.0,46,0.00,,,0.00,146,Wunderground v.1.15,2013-07-21 00:32:00,
2013-07-20 19:35:00,85.3,62.8,29.78,North,9,0.0,2.0,47,0.00,,,0.00,134,Wunderground v.1.15,2013-07-21 00:35:00,
2013-07-20 19:37:00,85.2,63.9,29.78,North,9,0.0,2.0,49,0.00,,,0.00,127,Wunderground v.1.15,2013-07-21 00:37:00,
2013-07-20 19:38:00,85.0,63.7,29.78,North,9,0.0,2.0,49,0.00,,,0.00,120,Wunderground v.1.15,2013-07-21 00:38:00,
2013-07-20 19:41:00,84.7,63.4,29.78,North,9,0.0,0.0,49,0.00,,,0.00,113,Wunderground v.1.15,2013-07-21 00:41:00,
2013-07-20 19:44:00,84.6,64.5,29.78,North,9,0.0,1.0,51,0.00,,,0.00,97,Wunderground v.1.15,2013-07-21 00:44:00,
2013-07-20 19:46:00,84.5,64.9,29.78,North,9,1.0,1.0,52,0.00,,,0.00,97,Wunderground v.1.15,2013-07-21 00:46:00,
2013-07-20 19:51:00,84.5,64.4,29.78,North,5,2.0,2.0,51,0.00,,,0.00,79,Wunderground v.1.15,2013-07-21 00:51:00,
2013-07-20 19:52:00,84.5,64.4,29.78,North,5,2.0,2.0,51,0.00,,,0.00,76,Wunderground v.1.15,2013-07-21 00:52:00,
2013-07-20 19:53:00,84.4,64.3,29.78,North,5,1.0,2.0,51,0.00,,,0.00,74,Wunderground v.1.15,2013-07-21 00:53:00,
2013-07-20 19:56:00,84.1,64.6,29.78,North,5,0.0,3.0,52,0.00,,,0.00,67,Wunderground v.1.15,2013-07-21 00:56:00,
2013-07-20 19:57:00,84.0,65.0,29.78,North,5,0.0,3.0,53,0.00,,,0.00,62,Wunderground v.1.15,2013-07-21 00:57:00,
2013-07-20 19:58:00,83.9,65.5,29.78,North,5,0.0,3.0,54,0.00,,,0.00,62,Wunderground v.1.15,2013-07-21 00:58:00,
2013-07-20 20:01:00,83.7,65.3,29.79,North,5,0.0,1.0,54,0.00,,,0.00,54,Wunderground v.1.15,2013-07-21 01:01:00,
2013-07-20 20:04:00,83.4,65.0,29.79,North,9,1.0,2.0,54,0.00,,,0.00,49,Wunderground v.1.15,2013-07-21 01:04:00,
2013-07-20 20:06:00,83.0,65.2,29.79,North,11,1.0,2.0,55,0.00,,,0.00,46,Wunderground v.1.15,2013-07-21 01:06:00,
2013-07-20 20:07:00,82.6,65.3,29.79,NNE,12,0.0,2.0,56,0.00,,,0.00,44,Wunderground v.1.15,2013-07-21 01:07:00,
2013-07-20 20:10:00,81.8,64.1,29.79,NNE,13,1.0,1.0,55,0.00,,,0.00,39,Wunderground v.1.15,2013-07-21 01:10:00,
2013-07-20 20:11:00,81.7,64.5,29.79,NNE,13,2.0,2.0,56,0.00,,,0.00,37,Wunderground v.1.15,2013-07-21 01:11:00,
2013-07-20 20:12:00,81.6,64.4,29.79,NNE,13,1.0,2.0,56,0.00,,,0.00,33,Wunderground v.1.15,2013-07-21 01:12:00,
2013-07-20 20:13:00,81.6,64.4,29.79,NNE,13,1.0,2.0,56,0.00,,,0.00,33,Wunderground v.1.15,2013-07-21 01:13:00,
2013-07-20 20:16:00,81.1,64.9,29.79,NNE,15,0.0,2.0,58,0.00,,,0.00,28,Wunderground v.1.15,2013-07-21 01:16:00,
2013-07-20 20:17:00,80.9,64.7,29.79,NNE,15,0.0,2.0,58,0.00,,,0.00,26,Wunderground v.1.15,2013-07-21 01:17:00,
2013-07-20 20:18:00,80.7,64.5,29.79,NNE,16,0.0,2.0,58,0.00,,,0.00,26,Wunderground v.1.15,2013-07-21 01:18:00,
2013-07-20 20:22:00,79.7,64.1,29.79,NNE,20,2.0,2.0,59,0.00,,,0.00,21,Wunderground v.1.15,2013-07-21 01:22:00,
2013-07-20 20:23:00,79.7,63.1,29.79,NNE,18,2.0,2.0,57,0.00,,,0.00,19,Wunderground v.1.15,2013-07-21 01:23:00,
2013-07-20 20:24:00,79.7,63.1,29.79,NNE,16,2.0,2.0,57,0.00,,,0.00,16,Wunderground v.1.15,2013-07-21 01:24:00,
2013-07-20 20:27:00,80.2,63.6,29.78,NNE,15,2.0,2.0,57,0.00,,,0.00,11,Wunderground v.1.15,2013-07-21 01:27:00,
2013-07-20 20:29:00,80.3,64.7,29.78,NNE,15,0.0,2.0,59,0.00,,,0.00,11,Wunderground v.1.15,2013-07-21 01:29:00,
2013-07-20 20:30:00,80.0,64.4,29.78,NNE,15,0.0,1.0,59,0.00,,,0.00,9,Wunderground v.1.15,2013-07-21 01:30:00,
2013-07-20 20:34:00,79.9,64.3,29.78,NNE,15,0.0,1.0,59,0.00,,,0.00,9,Wunderground v.1.15,2013-07-21 01:34:00,
2013-07-20 20:35:00,79.8,63.7,29.78,NNE,15,0.0,1.0,58,0.00,,,0.00,9,Wunderground v.1.15,2013-07-21 01:35:00,
2013-07-20 20:36:00,79.8,63.7,29.78,NNE,15,1.0,2.0,58,0.00,,,0.00,7,Wunderground v.1.15,2013-07-21 01:36:00,
2013-07-20 20:39:00,79.4,63.8,29.78,NNE,15,0.0,2.0,59,0.00,,,0.00,7,Wunderground v.1.15,2013-07-21 01:39:00,
2013-07-20 20:41:00,79.3,64.2,29.78,NNE,15,0.0,1.0,60,0.00,,,0.00,5,Wunderground v.1.15,2013-07-21 01:41:00,
2013-07-20 20:44:00,79.2,63.6,29.78,NNE,15,0.0,2.0,59,0.00,,,0.00,0,Wunderground v.1.15,2013-07-21 01:44:00,
2013-07-20 20:47:00,79.4,63.8,29.78,NNE,15,0.0,2.0,59,0.00,,,0.00,0,Wunderground v.1.15,2013-07-21 01:47:00,
2013-07-20 20:49:00,79.5,64.4,29.78,NNE,15,0.0,2.0,60,0.00,,,0.00,0,Wunderground v.1.15,2013-07-21 01:49:00,
2013-07-20 20:50:00,79.6,64.0,29.78,NNE,15,0.0,0.0,59,0.00,,,0.00,0,Wunderground v.1.15,2013-07-21 01:50:00,
2013-07-20 20:54:00,79.6,64.0,29.78,NNE,15,0.0,1.0,59,0.00,,,0.00,0,Wunderground v.1.15,2013-07-21 01:54:00,
2013-07-20 20:56:00,79.6,64.0,29.78,NNE,15,0.0,1.0,59,0.00,,,0.00,0,Wunderground v.1.15,2013-07-21 01:56:00,
2013-07-20 20:57:00,79.5,63.9,29.78,NNE,15,0.0,1.0,59,0.00,,,0.00,0,Wunderground v.1.15,2013-07-21 01:57:00,
2013-07-20 20:59:00,79.4,64.3,29.78,NNE,15,1.0,1.0,60,0.00,,,0.00,0,Wunderground v.1.15,2013-07-21 01:59:00,
2013-07-20 21:00:00,79.4,64.3,29.78,NNE,15,0.0,1.0,60,0.00,,,0.00,0,Wunderground v.1.15,2013-07-21 02:00:00,
2013-07-20 21:01:00,79.3,64.2,29.78,NNE,15,0.0,0.0,60,0.00,,,0.00,0,Wunderground v.1.15,2013-07-21 02:01:00,
2013-07-20 21:03:00,79.1,64.0,29.78,NNE,15,0.0,1.0,60,0.00,,,0.00,0,Wunderground v.1.15,2013-07-21 02:03:00,
2013-07-20 21:05:00,78.9,63.8,29.78,NNE,15,0.0,1.0,60,0.00,,,0.00,0,Wunderground v.1.15,2013-07-21 02:05:00,
2013-07-20 21:06:00,78.9,63.8,29.78,NNE,15,0.0,1.0,60,0.00,,,0.00,0,Wunderground v.1.15,2013-07-21 02:06:00,
2013-07-20 21:07:00,78.5,64.4,29.78,NNE,15,0.0,1.0,62,0.00,,,0.00,0,Wunderground v.1.15,2013-07-21 02:07:00,
2013-07-20 21:11:00,77.0,63.4,29.78,NNE,15,0.0,0.0,63,0.00,,,0.00,0,Wunderground v.1.15,2013-07-21 02:11:00,
2013-07-20 21:13:00,76.6,64.0,29.78,NNE,15,0.0,0.0,65,0.00,,,0.00,0,Wunderground v.1.15,2013-07-21 02:13:00,
2013-07-20 21:14:00,76.3,63.7,29.78,NNE,15,0.0,0.0,65,0.00,,,0.00,0,Wunderground v.1.15,2013-07-21 02:14:00,
2013-07-20 21:17:00,76.1,63.9,29.78,NNE,24,0.0,3.0,66,0.00,,,0.00,0,Wunderground v.1.15,2013-07-21 02:17:00,
2013-07-20 21:18:00,76.1,63.9,29.78,NNE,24,0.0,3.0,66,0.00,,,0.00,0,Wunderground v.1.15,2013-07-21 02:18:00,
2013-07-20 21:19:00,76.0,64.2,29.78,NNE,24,0.0,3.0,67,0.00,,,0.00,0,Wunderground v.1.15,2013-07-21 02:19:00,
2013-07-20 21:22:00,75.3,64.8,29.78,NNE,24,0.0,0.0,70,0.00,,,0.00,0,Wunderground v.1.15,2013-07-21 02:22:00,
2013-07-20 21:23:00,75.3,64.8,29.78,NNE,24,0.0,0.0,70,0.00,,,0.00,0,Wunderground v.1.15,2013-07-21 02:23:00,
2013-07-20 21:24:00,75.0,64.5,29.78,NNE,24,0.0,0.0,70,0.00,,,0.00,0,Wunderground v.1.15,2013-07-21 02:24:00,
2013-07-20 21:29:00,74.2,65.0,29.79,NNE,24,0.0,0.0,73,0.00,,,0.00,0,Wunderground v.1.15,2013-07-21 02:29:00,
2013-07-20 21:30:00,73.9,64.7,29.79,NNE,24,0.0,0.0,73,0.00,,,0.00,0,Wunderground v.1.15,2013-07-21 02:30:00,
2013-07-20 21:33:00,73.3,64.9,29.79,NNE,24,0.0,0.0,75,0.00,,,0.00,0,Wunderground v.1.15,2013-07-21 02:33:00,
2013-07-20 21:34:00,73.3,64.9,29.79,NNE,24,0.0,0.0,75,0.00,,,0.00,0,Wunderground v.1.15,2013-07-21 02:34:00,
2013-07-20 21:36:00,73.2,64.8,29.79,NNE,24,0.0,0.0,75,0.00,,,0.00,0,Wunderground v.1.15,2013-07-21 02:36:00,
2013-07-20 21:38:00,73.2,64.4,29.79,NNE,24,0.0,0.0,74,0.00,,,0.00,0,Wunderground v.1.15,2013-07-21 02:38:00,
2013-07-20 21:39:00,73.2,64.4,29.79,NNE,24,0.0,0.0,74,0.00,,,0.00,0,Wunderground v.1.15,2013-07-21 02:39:00,
2013-07-20 21:40:00,73.2,64.4,29.79,NNE,24,0.0,0.0,74,0.00,,,0.00,0,Wunderground v.1.15,2013-07-21 02:40:00,
2013-07-20 21:42:00,73.2,64.4,29.79,NNE,24,0.0,0.0,74,0.00,,,0.00,0,Wunderground v.1.15,2013-07-21 02:42:00,
2013-07-20 21:44:00,73.6,64.4,29.79,NNE,26,0.0,1.0,73,0.00,,,0.00,0,Wunderground v.1.15,2013-07-21 02:44:00,
2013-07-20 21:46:00,73.8,63.8,29.80,NNE,26,0.0,1.0,71,0.00,,,0.00,0,Wunderground v.1.15,2013-07-21 02:46:00,
2013-07-20 21:48:00,74.2,64.2,29.80,NNE,28,0.0,2.0,71,0.00,,,0.00,0,Wunderground v.1.15,2013-07-21 02:48:00,
2013-07-20 21:51:00,74.6,64.2,29.80,NNE,28,0.0,0.0,70,0.00,,,0.00,0,Wunderground v.1.15,2013-07-21 02:51:00,
2013-07-20 21:53:00,74.5,64.5,29.80,NNE,28,0.0,0.0,71,0.00,,,0.00,0,Wunderground v.1.15,2013-07-21 02:53:00,
2013-07-20 21:54:00,74.4,64.4,29.80,NNE,28,0.0,0.0,71,0.00,,,0.00,0,Wunderground v.1.15,2013-07-21 02:54:00,
2013-07-20 21:59:00,73.3,64.5,29.81,NNE,28,0.0,0.0,74,0.00,,,0.00,0,Wunderground v.1.15,2013-07-21 02:59:00,
2013-07-20 22:01:00,72.6,64.2,29.81,NNE,28,0.0,0.0,75,0.00,,,0.00,0,Wunderground v.1.15,2013-07-21 03:01:00,
2013-07-20 22:04:00,72.0,64.0,29.81,NNE,28,0.0,0.0,76,0.00,,,0.00,0,Wunderground v.1.15,2013-07-21 03:04:00,
2013-07-20 22:06:00,71.8,64.2,29.81,NNE,28,0.0,0.0,77,0.00,,,0.00,0,Wunderground v.1.15,2013-07-21 03:06:00,
2013-07-20 22:07:00,71.7,64.1,29.81,NNE,28,0.0,0.0,77,0.00,,,0.00,0,Wunderground v.1.15,2013-07-21 03:07:00,
2013-07-20 22:08:00,71.7,64.1,29.81,NNE,28,0.0,0.0,77,0.00,,,0.00,0,Wunderground v.1.15,2013-07-21 03:08:00,
2013-07-20 22:10:00,71.9,64.3,29.81,NNE,28,0.0,0.0,77,0.00,,,0.00,0,Wunderground v.1.15,2013-07-21 03:10:00,
2013-07-20 22:12:00,72.4,64.4,29.81,NNE,28,0.0,0.0,76,0.00,,,0.00,0,Wunderground v.1.15,2013-07-21 03:12:00,
2013-07-20 22:13:00,72.6,64.2,29.82,NNE,28,0.0,0.0,75,0.00,,,0.00,0,Wunderground v.1.15,2013-07-21 03:13:00,
2013-07-20 22:18:00,73.3,64.5,29.82,NNE,28,0.0,0.0,74,0.00,,,0.00,0,Wunderground v.1.15,2013-07-21 03:18:00,
2013-07-20 22:19:00,73.3,64.5,29.82,NNE,28,0.0,0.0,74,0.00,,,0.00,0,Wunderground v.1.15,2013-07-21 03:19:00,
2013-07-20 22:20:00,73.4,64.6,29.82,NNE,28,0.0,0.0,74,0.00,,,0.00,0,Wunderground v.1.15,2013-07-21 03:20:00,
2013-07-20 22:24:00,73.1,64.7,29.82,NNE,28,0.0,0.0,75,0.00,,,0.00,0,Wunderground v.1.15,2013-07-21 03:24:00,
2013-07-20 22:26:00,73.0,64.2,29.82,NNE,28,0.0,0.0,74,0.00,,,0.00,0,Wunderground v.1.15,2013-07-21 03:26:00,
2013-07-20 22:27:00,72.9,64.5,29.82,NNE,28,0.0,0.0,75,0.00,,,0.00,0,Wunderground v.1.15,2013-07-21 03:27:00,
2013-07-20 22:30:00,72.7,63.9,29.82,NNE,28,0.0,0.0,74,0.00,,,0.00,0,Wunderground v.1.15,2013-07-21 03:30:00,
2013-07-20 22:31:00,72.6,63.8,29.82,NNE,28,0.0,0.0,74,0.00,,,0.00,0,Wunderground v.1.15,2013-07-21 03:31:00,
2013-07-20 22:32:00,72.5,64.1,29.82,NNE,28,0.0,0.0,75,0.00,,,0.00,0,Wunderground v.1.15,2013-07-21 03:32:00,
2013-07-20 22:36:00,71.9,63.9,29.82,NNE,28,0.0,0.0,76,0.00,,,0.00,0,Wunderground v.1.15,2013-07-21 03:36:00,
2013-07-20 22:37:00,71.8,63.8,29.82,NNE,28,0.0,0.0,76,0.00,,,0.00,0,Wunderground v.1.15,2013-07-21 03:37:00,
2013-07-20 22:38:00,71.7,63.7,29.82,NNE,28,0.0,0.0,76,0.00,,,0.00,0,Wunderground v.1.15,2013-07-21 03:38:00,
2013-07-20 22:41:00,71.7,63.4,29.82,NNE,28,0.0,0.0,75,0.00,,,0.00,0,Wunderground v.1.15,2013-07-21 03:41:00,
2013-07-20 22:43:00,71.7,63.4,29.82,NNE,28,0.0,0.0,75,0.00,,,0.00,0,Wunderground v.1.15,2013-07-21 03:43:00,
2013-07-20 22:45:00,71.5,63.5,29.82,NNE,28,0.0,0.0,76,0.00,,,0.00,0,Wunderground v.1.15,2013-07-21 03:45:00,
2013-07-20 22:47:00,71.5,63.2,29.82,NNE,28,0.0,0.0,75,0.00,,,0.00,0,Wunderground v.1.15,2013-07-21 03:47:00,
2013-07-20 22:48:00,71.4,63.1,29.82,NNE,28,0.0,0.0,75,0.00,,,0.00,0,Wunderground v.1.15,2013-07-21 03:48:00,
2013-07-20 22:49:00,71.4,62.7,29.82,NNE,28,0.0,0.0,74,0.00,,,0.00,0,Wunderground v.1.15,2013-07-21 03:49:00,
2013-07-20 22:52:00,71.5,63.2,29.83,NNE,28,0.0,0.0,75,0.00,,,0.00,0,Wunderground v.1.15,2013-07-21 03:52:00,
2013-07-20 22:54:00,71.3,63.0,29.83,NNE,28,0.0,0.0,75,0.00,,,0.00,0,Wunderground v.1.15,2013-07-21 03:54:00,
2013-07-20 22:55:00,71.3,63.0,29.83,NNE,28,0.0,0.0,75,0.00,,,0.00,0,Wunderground v.1.15,2013-07-21 03:55:00,
2013-07-20 22:59:00,71.7,62.6,29.83,NNE,28,0.0,0.0,73,0.00,,,0.00,0,Wunderground v.1.15,2013-07-21 03:59:00,
2013-07-20 23:00:00,71.8,62.7,29.83,NNE,28,0.0,0.0,73,0.00,,,0.00,0,Wunderground v.1.15,2013-07-21 04:00:00,
2013-07-20 23:01:00,71.8,63.1,29.83,NNE,28,0.0,0.0,74,0.00,,,0.00,0,Wunderground v.1.15,2013-07-21 04:01:00,
2013-07-20 23:02:00,71.5,63.2,29.83,NNE,28,0.0,0.0,75,0.00,,,0.00,0,Wunderground v.1.15,2013-07-21 04:02:00,
2013-07-20 23:03:00,71.3,63.0,29.83,NNE,28,0.0,0.0,75,0.00,,,0.00,0,Wunderground v.1.15,2013-07-21 04:03:00,
2013-07-20 23:06:00,70.9,62.6,29.83,NNE,28,0.0,0.0,75,0.00,,,0.00,0,Wunderground v.1.15,2013-07-21 04:06:00,
2013-07-20 23:07:00,70.7,62.8,29.83,NNE,28,0.0,0.0,76,0.00,,,0.00,0,Wunderground v.1.15,2013-07-21 04:07:00,
2013-07-20 23:08:00,70.7,62.8,29.83,NNE,28,0.0,0.0,76,0.00,,,0.00,0,Wunderground v.1.15,2013-07-21 04:08:00,
2013-07-20 23:12:00,70.1,62.9,29.83,NNE,28,0.0,0.0,78,0.00,,,0.00,0,Wunderground v.1.15,2013-07-21 04:12:00,
2013-07-20 23:13:00,69.9,62.7,29.83,NNE,28,0.0,0.0,78,0.00,,,0.00,0,Wunderground v.1.15,2013-07-21 04:13:00,
2013-07-20 23:15:00,69.7,62.9,29.83,NNE,28,0.0,0.0,79,0.00,,,0.00,0,Wunderground v.1.15,2013-07-21 04:15:00,
2013-07-20 23:17:00,69.5,62.7,29.83,NNE,28,0.0,0.0,79,0.00,,,0.00,0,Wunderground v.1.15,2013-07-21 04:17:00,
2013-07-20 23:18:00,69.5,62.7,29.83,NNE,28,0.0,0.0,79,0.00,,,0.00,0,Wunderground v.1.15,2013-07-21 04:18:00,
2013-07-20 23:20:00,69.4,62.6,29.83,NNE,28,0.0,0.0,79,0.00,,,0.00,0,Wunderground v.1.15,2013-07-21 04:20:00,
2013-07-20 23:22:00,69.4,62.6,29.83,NNE,28,0.0,0.0,79,0.00,,,0.00,0,Wunderground v.1.15,2013-07-21 04:22:00,
2013-07-20 23:23:00,69.5,62.7,29.83,NNE,28,0.0,0.0,79,0.00,,,0.00,0,Wunderground v.1.15,2013-07-21 04:23:00,
2013-07-20 23:27:00,69.7,62.9,29.83,NNE,28,0.0,0.0,79,0.00,,,0.00,0,Wunderground v.1.15,2013-07-21 04:27:00,
2013-07-20 23:28:00,69.7,62.5,29.83,NNE,28,0.0,0.0,78,0.00,,,0.00,0,Wunderground v.1.15,2013-07-21 04:28:00,
2013-07-20 23:29:00,69.7,62.5,29.83,NNE,28,0.0,0.0,78,0.00,,,0.00,0,Wunderground v.1.15,2013-07-21 04:29:00,
2013-07-20 23:32:00,69.7,62.5,29.83,NNE,28,0.0,0.0,78,0.00,,,0.00,0,Wunderground v.1.15,2013-07-21 04:32:00,
2013-07-20 23:33:00,69.6,62.4,29.83,NNE,28,0.0,0.0,78,0.00,,,0.00,0,Wunderground v.1.15,2013-07-21 04:33:00,
2013-07-20 23:34:00,69.7,62.5,29.83,NNE,28,0.0,0.0,78,0.00,,,0.00,0,Wunderground v.1.15,2013-07-21 04:34:00,
2013-07-20 23:37:00,69.6,62.8,29.83,NNE,28,0.0,0.0,79,0.00,,,0.00,0,Wunderground v.1.15,2013-07-21 04:37:00,
2013-07-20 23:39:00,69.5,62.7,29.83,NNE,28,0.0,0.0,79,0.00,,,0.00,0,Wunderground v.1.15,2013-07-21 04:39:00,
2013-07-20 23:42:00,69.4,62.6,29.82,NNE,28,0.0,0.0,79,0.00,,,0.00,0,Wunderground v.1.15,2013-07-21 04:42:00,
2013-07-20 23:44:00,69.2,62.4,29.82,NNE,28,0.0,0.0,79,0.00,,,0.00,0,Wunderground v.1.15,2013-07-21 04:44:00,
2013-07-20 23:45:00,69.1,62.3,29.82,NNE,28,0.0,0.0,79,0.00,,,0.00,0,Wunderground v.1.15,2013-07-21 04:45:00,
2013-07-20 23:47:00,69.1,62.3,29.82,NNE,28,0.0,0.0,79,0.00,,,0.00,0,Wunderground v.1.15,2013-07-21 04:47:00,
2013-07-20 23:50:00,69.5,62.7,29.82,NNE,28,0.0,0.0,79,0.00,,,0.00,0,Wunderground v.1.15,2013-07-21 04:50:00,
2013-07-20 23:51:00,69.5,62.7,29.82,NNE,28,0.0,0.0,79,0.00,,,0.00,0,Wunderground v.1.15,2013-07-21 04:51:00,
2013-07-20 23:54:00,69.8,62.6,29.82,NNE,28,0.0,0.0,78,0.00,,,0.00,0,Wunderground v.1.15,2013-07-21 04:54:00,
2013-07-20 23:56:00,70.0,62.8,29.82,NNE,28,0.0,0.0,78,0.00,,,0.00,0,Wunderground v.1.15,2013-07-21 04:56:00,
2013-07-20 23:57:00,70.1,62.9,29.82,NNE,28,0.0,0.0,78,0.00,,,0.00,0,Wunderground v.1.15,2013-07-21 04:57:00,
2013-07-20 23:59:00,70.1,62.9,29.82,NNE,28,0.0,0.0,78,0.00,,,0.00,0,Wunderground v.1.15,2013-07-21 04:59:00,